Time,TemperatureF,DewpointF,PressureIn,WindDirection,WindDirectionDegrees,WindSpeedMPH,WindSpeedGustMPH,Humidity,HourlyPrecipIn,Conditions,Clouds,dailyrainin,SoftwareType,DateUTC
2013-03-24 00:00:00,28.9,26.1,30.04,NE,45,5.5,5.5,89,0.00,,,0.00,WUHU215HW,2013-03-24 05:00:00,
2013-03-24 00:04:00,28.9,26.1,30.04,NNE,17,3.8,5.5,89,0.00,,,0.00,WUHU215HW,2013-03-24 05:04:00,
2013-03-24 00:05:00,28.9,26.1,30.04,North,10,3.3,5.5,89,0.00,,,0.00,WUHU215HW,2013-03-24 05:05:00,
2013-03-24 00:06:00,28.9,26.1,30.04,North,0,2.9,5.5,89,0.00,,,0.00,WUHU215HW,2013-03-24 05:06:00,
2013-03-24 00:10:00,28.9,26.1,30.04,North,0,5.4,7.3,89,0.00,,,0.00,WUHU215HW,2013-03-24 05:10:00,
2013-03-24 00:12:00,28.9,26.1,30.04,NW,315,5.5,7.3,89,0.00,,,0.00,WUHU215HW,2013-03-24 05:12:00,
2013-03-24 00:13:00,28.9,26.1,30.04,NNW,330,4.3,7.3,89,0.00,,,0.00,WUHU215HW,2013-03-24 05:13:00,
2013-03-24 00:18:00,28.9,26.1,30.04,NNE,23,4.9,7.3,89,0.00,,,0.00,WUHU215HW,2013-03-24 05:18:00,
2013-03-24 00:19:00,28.9,26.1,30.04,NNE,23,4.9,5.5,89,0.00,,,0.00,WUHU215HW,2013-03-24 05:19:00,
2013-03-24 00:20:00,28.9,26.1,30.04,NNE,23,4.9,5.5,89,0.00,,,0.00,WUHU215HW,2013-03-24 05:20:00,
2013-03-24 00:24:00,28.9,26.1,30.04,NNE,23,2.2,4.9,89,0.00,,,0.00,WUHU215HW,2013-03-24 05:24:00,
2013-03-24 00:25:00,28.9,26.1,30.04,NNE,23,2.2,4.9,89,0.00,,,0.00,WUHU215HW,2013-03-24 05:25:00,
2013-03-24 00:27:00,28.9,26.1,30.04,NNE,23,2.2,4.9,89,0.00,,,0.00,WUHU215HW,2013-03-24 05:27:00,
2013-03-24 00:29:00,28.9,26.1,30.04,NNE,23,5.5,5.5,89,0.00,,,0.00,WUHU215HW,2013-03-24 05:29:00,
2013-03-24 00:32:00,28.9,25.8,30.04,NNE,23,3.5,5.5,88,0.00,,,0.00,WUHU215HW,2013-03-24 05:32:00,
2013-03-24 00:33:00,28.9,25.8,30.04,NNE,23,3.5,5.5,88,0.00,,,0.00,WUHU215HW,2013-03-24 05:33:00,
2013-03-24 00:35:00,28.9,25.8,30.04,North,10,3.1,5.5,88,0.00,,,0.00,WUHU215HW,2013-03-24 05:35:00,
2013-03-24 00:36:00,28.9,25.8,30.04,North,354,2.9,5.5,88,0.00,,,0.00,WUHU215HW,2013-03-24 05:36:00,
2013-03-24 00:38:00,28.9,25.8,30.04,NNE,23,9.3,9.3,88,0.00,,,0.00,WUHU215HW,2013-03-24 05:38:00,
2013-03-24 00:39:00,28.7,25.8,30.04,NNE,23,9.3,9.3,88,0.00,,,0.00,WUHU215HW,2013-03-24 05:39:00,
2013-03-24 00:40:00,28.7,25.8,30.04,NNE,23,9.3,9.3,88,0.00,,,0.00,WUHU215HW,2013-03-24 05:40:00,
2013-03-24 00:41:00,28.7,25.6,30.04,NNE,19,7.4,9.3,88,0.00,,,0.00,WUHU215HW,2013-03-24 05:41:00,
2013-03-24 00:45:00,28.7,25.6,30.04,NE,45,3.5,9.3,88,0.00,,,0.00,WUHU215HW,2013-03-24 05:45:00,
2013-03-24 00:47:00,28.7,25.6,30.04,North,0,7.1,9.3,88,0.00,,,0.00,WUHU215HW,2013-03-24 05:47:00,
2013-03-24 00:52:00,28.7,25.6,30.04,North,0,5.0,7.1,88,0.00,,,0.00,WUHU215HW,2013-03-24 05:52:00,
2013-03-24 00:53:00,28.5,25.4,30.04,North,0,5.8,7.1,88,0.00,,,0.00,WUHU215HW,2013-03-24 05:53:00,
2013-03-24 00:57:00,28.5,25.7,30.04,North,0,4.9,7.1,89,0.00,,,0.00,WUHU215HW,2013-03-24 05:57:00,
2013-03-24 00:58:00,28.5,25.7,30.04,North,0,4.7,7.1,89,0.00,,,0.00,WUHU215HW,2013-03-24 05:58:00,
2013-03-24 01:00:00,28.5,25.7,30.04,NNW,342,3.4,5.8,89,0.00,,,0.00,WUHU215HW,2013-03-24 06:00:00,
2013-03-24 01:03:00,28.5,25.7,30.04,North,0,3.5,5.8,89,0.00,,,0.00,WUHU215HW,2013-03-24 06:03:00,
2013-03-24 01:04:00,28.5,25.7,30.04,North,0,3.5,4.9,89,0.00,,,0.00,WUHU215HW,2013-03-24 06:04:00,
2013-03-24 01:05:00,28.5,25.7,30.04,NNE,23,5.5,5.5,89,0.00,,,0.00,WUHU215HW,2013-03-24 06:05:00,
2013-03-24 01:08:00,28.5,25.7,30.04,NE,45,6.9,6.9,89,0.00,,,0.00,WUHU215HW,2013-03-24 06:08:00,
2013-03-24 01:09:00,28.5,25.7,30.04,NNE,23,6.9,6.9,89,0.00,,,0.00,WUHU215HW,2013-03-24 06:09:00,
2013-03-24 01:13:00,28.5,25.7,30.04,North,3,2.4,6.9,89,0.00,,,0.00,WUHU215HW,2013-03-24 06:13:00,
2013-03-24 01:15:00,28.5,25.7,30.04,NNE,23,1.1,6.9,89,0.00,,,0.00,WUHU215HW,2013-03-24 06:15:00,
2013-03-24 01:17:00,28.5,25.7,30.04,NNE,32,3.3,6.9,89,0.00,,,0.00,WUHU215HW,2013-03-24 06:17:00,
2013-03-24 01:18:00,28.5,25.7,30.04,NNE,26,3.7,6.9,89,0.00,,,0.00,WUHU215HW,2013-03-24 06:18:00,
2013-03-24 01:21:00,28.5,25.7,30.04,North,0,2.6,6.9,89,0.00,,,0.00,WUHU215HW,2013-03-24 06:21:00,
2013-03-24 01:22:00,28.5,25.7,30.04,NNW,338,14.0,14.0,89,0.00,,,0.00,WUHU215HW,2013-03-24 06:22:00,
2013-03-24 01:24:00,28.5,25.7,30.04,NNW,338,11.5,14.0,89,0.00,,,0.00,WUHU215HW,2013-03-24 06:24:00,
2013-03-24 01:25:00,28.5,25.7,30.04,NNW,338,8.9,14.0,89,0.00,,,0.00,WUHU215HW,2013-03-24 06:25:00,
2013-03-24 01:27:00,28.5,25.7,30.04,NNW,338,6.4,14.0,89,0.00,,,0.00,WUHU215HW,2013-03-24 06:27:00,
2013-03-24 01:30:00,28.5,25.7,30.04,North,0,6.4,14.0,89,0.00,,,0.00,WUHU215HW,2013-03-24 06:30:00,
2013-03-24 01:31:00,28.5,25.7,30.04,North,6,5.9,14.0,89,0.00,,,0.00,WUHU215HW,2013-03-24 06:31:00,
2013-03-24 01:32:00,28.5,25.7,30.04,NE,45,7.6,14.0,89,0.00,,,0.00,WUHU215HW,2013-03-24 06:32:00,
2013-03-24 01:35:00,28.5,25.7,30.04,North,0,8.2,8.2,89,0.00,,,0.00,WUHU215HW,2013-03-24 06:35:00,
2013-03-24 01:37:00,28.5,25.7,30.04,NNE,23,8.7,8.7,89,0.00,,,0.00,WUHU215HW,2013-03-24 06:37:00,
2013-03-24 01:40:00,28.5,25.7,30.04,North,359,5.5,8.7,89,0.00,,,0.00,WUHU215HW,2013-03-24 06:40:00,
2013-03-24 01:41:00,28.5,25.7,30.04,NW,315,5.3,8.7,89,0.00,,,0.00,WUHU215HW,2013-03-24 06:41:00,
2013-03-24 01:42:00,28.5,25.7,30.04,NW,315,5.3,8.7,89,0.00,,,0.00,WUHU215HW,2013-03-24 06:42:00,
2013-03-24 01:44:00,28.5,25.7,30.04,North,350,3.1,8.7,89,0.00,,,0.00,WUHU215HW,2013-03-24 06:44:00,
2013-03-24 01:45:00,28.4,25.7,30.04,North,0,6.9,8.7,89,0.00,,,0.00,WUHU215HW,2013-03-24 06:45:00,
2013-03-24 01:47:00,28.4,25.7,30.04,North,356,5.4,8.7,89,0.00,,,0.00,WUHU215HW,2013-03-24 06:47:00,
2013-03-24 01:50:00,28.4,25.5,30.04,NNW,338,2.6,6.9,89,0.00,,,0.00,WUHU215HW,2013-03-24 06:50:00,
2013-03-24 01:51:00,28.4,25.5,30.04,NNW,338,2.6,6.9,89,0.00,,,0.00,WUHU215HW,2013-03-24 06:51:00,
2013-03-24 01:53:00,28.4,25.5,30.04,North,350,2.3,6.9,89,0.00,,,0.00,WUHU215HW,2013-03-24 06:53:00,
2013-03-24 01:56:00,28.4,25.5,30.04,NNW,338,7.8,7.8,89,0.00,,,0.00,WUHU215HW,2013-03-24 06:56:00,
2013-03-24 01:58:00,28.5,25.5,30.04,NNW,338,7.8,7.8,89,0.00,,,0.00,WUHU215HW,2013-03-24 06:58:00,
2013-03-24 02:00:00,28.5,25.7,30.04,North,355,7.6,12.5,89,0.00,,,0.00,WUHU215HW,2013-03-24 07:00:00,
2013-03-24 02:04:00,28.4,25.5,30.04,North,0,8.2,12.5,89,0.00,,,0.00,WUHU215HW,2013-03-24 07:04:00,
2013-03-24 02:05:00,28.2,25.4,30.04,NNE,23,8.7,12.5,89,0.00,,,0.00,WUHU215HW,2013-03-24 07:05:00,
2013-03-24 02:06:00,28.2,25.4,30.04,NNE,23,8.7,12.5,89,0.00,,,0.00,WUHU215HW,2013-03-24 07:06:00,
2013-03-24 02:09:00,28.2,25.4,30.04,NNE,23,4.6,12.5,89,0.00,,,0.00,WUHU215HW,2013-03-24 07:09:00,
2013-03-24 02:14:00,28.0,25.2,30.04,NNE,23,8.7,8.7,89,0.00,,,0.00,WUHU215HW,2013-03-24 07:14:00,
2013-03-24 02:19:00,28.0,25.2,30.04,NNE,23,6.7,10.2,89,0.00,,,0.00,WUHU215HW,2013-03-24 07:19:00,
2013-03-24 02:22:00,28.0,25.2,30.04,NNE,23,6.5,10.2,89,0.00,,,0.00,WUHU215HW,2013-03-24 07:22:00,
2013-03-24 02:24:00,28.0,25.2,30.04,NE,45,8.9,10.2,89,0.00,,,0.00,WUHU215HW,2013-03-24 07:24:00,
2013-03-24 02:25:00,28.0,25.2,30.04,NE,45,8.9,10.2,89,0.00,,,0.00,WUHU215HW,2013-03-24 07:25:00,
2013-03-24 02:30:00,27.6,24.8,30.04,NE,45,5.8,8.9,89,0.00,,,0.00,WUHU215HW,2013-03-24 07:30:00,
2013-03-24 02:31:00,27.6,24.8,30.04,NE,45,5.8,8.9,89,0.00,,,0.00,WUHU215HW,2013-03-24 07:31:00,
2013-03-24 02:32:00,27.6,24.8,30.04,NNE,32,4.0,8.9,89,0.00,,,0.00,WUHU215HW,2013-03-24 07:32:00,
2013-03-24 02:35:00,27.6,24.8,30.04,NW,315,4.2,8.9,89,0.00,,,0.00,WUHU215HW,2013-03-24 07:35:00,
2013-03-24 02:37:00,27.6,24.8,30.04,NE,45,4.0,5.8,89,0.00,,,0.00,WUHU215HW,2013-03-24 07:37:00,
2013-03-24 02:41:00,27.6,24.8,30.04,North,0,11.1,11.1,89,0.00,,,0.00,WUHU215HW,2013-03-24 07:41:00,
2013-03-24 02:42:00,27.5,24.6,30.04,North,0,11.1,11.1,89,0.00,,,0.00,WUHU215HW,2013-03-24 07:42:00,
2013-03-24 02:45:00,27.5,24.6,30.04,NNW,348,8.3,11.1,89,0.00,,,0.00,WUHU215HW,2013-03-24 07:45:00,
2013-03-24 02:46:00,27.5,24.6,30.04,NW,325,6.3,11.1,89,0.00,,,0.00,WUHU215HW,2013-03-24 07:46:00,
2013-03-24 02:51:00,27.5,24.6,30.04,NNW,338,9.8,11.1,88,0.00,,,0.00,WUHU215HW,2013-03-24 07:51:00,
2013-03-24 02:56:00,27.3,24.6,30.04,NE,45,3.8,9.8,88,0.00,,,0.00,WUHU215HW,2013-03-24 07:56:00,
2013-03-24 03:01:00,27.3,24.2,30.04,NNW,338,5.5,9.8,88,0.00,,,0.00,WUHU215HW,2013-03-24 08:01:00,
2013-03-24 03:02:00,27.3,24.2,30.04,NNW,341,4.3,5.5,88,0.00,,,0.00,WUHU215HW,2013-03-24 08:02:00,
2013-03-24 03:07:00,27.3,24.2,30.04,NNE,23,8.2,8.2,88,0.00,,,0.00,WUHU215HW,2013-03-24 08:07:00,
2013-03-24 03:08:00,27.3,24.2,30.04,NNE,23,8.2,8.2,88,0.00,,,0.00,WUHU215HW,2013-03-24 08:08:00,
2013-03-24 03:13:00,27.3,24.2,30.04,North,350,4.4,8.2,88,0.00,,,0.00,WUHU215HW,2013-03-24 08:13:00,
2013-03-24 03:17:00,27.3,24.2,30.04,NNW,332,1.6,8.2,88,0.00,,,0.00,WUHU215HW,2013-03-24 08:17:00,
2013-03-24 03:18:00,27.3,24.2,30.04,North,0,4.0,8.2,88,0.00,,,0.00,WUHU215HW,2013-03-24 08:18:00,
2013-03-24 03:19:00,27.3,24.2,30.04,North,0,4.0,8.2,88,0.00,,,0.00,WUHU215HW,2013-03-24 08:19:00,
2013-03-24 03:23:00,27.3,24.2,30.04,North,350,6.2,10.9,88,0.00,,,0.00,WUHU215HW,2013-03-24 08:23:00,
2013-03-24 03:24:00,27.3,24.2,30.04,NNW,338,4.0,10.9,88,0.00,,,0.00,WUHU215HW,2013-03-24 08:24:00,
2013-03-24 03:28:00,27.3,24.2,30.04,NNE,23,1.3,10.9,88,0.00,,,0.00,WUHU215HW,2013-03-24 08:28:00,
2013-03-24 03:29:00,27.3,24.2,30.04,NNE,23,1.3,10.9,88,0.00,,,0.00,WUHU215HW,2013-03-24 08:29:00,
2013-03-24 03:31:00,27.3,24.2,30.04,NNE,23,1.3,10.9,88,0.00,,,0.00,WUHU215HW,2013-03-24 08:31:00,
2013-03-24 03:34:00,27.3,24.2,30.04,North,0,4.2,4.2,88,0.00,,,0.00,WUHU215HW,2013-03-24 08:34:00,
2013-03-24 03:37:00,27.3,24.2,30.04,North,0,4.2,4.2,88,0.00,,,0.00,WUHU215HW,2013-03-24 08:37:00,
2013-03-24 03:39:00,27.3,24.2,30.04,NNW,335,6.0,8.0,88,0.00,,,0.00,WUHU215HW,2013-03-24 08:39:00,
2013-03-24 03:41:00,27.1,24.0,30.04,NNW,338,4.4,8.0,88,0.00,,,0.00,WUHU215HW,2013-03-24 08:41:00,
2013-03-24 03:44:00,27.1,24.0,30.04,NNW,338,6.2,8.0,88,0.00,,,0.00,WUHU215HW,2013-03-24 08:44:00,
2013-03-24 03:50:00,27.1,24.0,30.04,NNW,338,9.6,9.6,88,0.00,,,0.00,WUHU215HW,2013-03-24 08:50:00,
2013-03-24 03:55:00,27.1,24.0,30.04,ENE,68,6.4,9.6,88,0.00,,,0.00,WUHU215HW,2013-03-24 08:55:00,
2013-03-24 04:00:00,26.9,23.8,30.04,NNW,344,7.4,8.2,88,0.00,,,0.00,WUHU215HW,2013-03-24 09:00:00,
2013-03-24 04:01:00,26.9,23.8,30.04,North,351,6.7,8.2,88,0.00,,,0.00,WUHU215HW,2013-03-24 09:01:00,
2013-03-24 04:05:00,26.9,23.8,30.04,North,0,0.2,8.2,88,0.00,,,0.00,WUHU215HW,2013-03-24 09:05:00,
2013-03-24 04:06:00,26.9,23.8,30.04,North,0,0.2,8.2,88,0.00,,,0.00,WUHU215HW,2013-03-24 09:06:00,
2013-03-24 04:07:00,26.9,23.8,30.04,NNW,338,3.5,8.2,88,0.00,,,0.00,WUHU215HW,2013-03-24 09:07:00,
2013-03-24 04:10:00,26.7,23.6,30.04,NW,315,5.1,6.2,88,0.00,,,0.00,WUHU215HW,2013-03-24 09:10:00,
2013-03-24 04:15:00,26.7,23.6,30.04,NNW,338,4.4,5.1,88,0.00,,,0.00,WUHU215HW,2013-03-24 09:15:00,
2013-03-24 04:16:00,26.7,23.6,30.04,North,0,4.6,5.1,88,0.00,,,0.00,WUHU215HW,2013-03-24 09:16:00,
2013-03-24 04:20:00,26.6,23.5,30.04,North,1,4.7,6.7,88,0.00,,,0.00,WUHU215HW,2013-03-24 09:20:00,
2013-03-24 04:22:00,26.6,23.5,30.04,North,3,2.6,6.7,88,0.00,,,0.00,WUHU215HW,2013-03-24 09:22:00,
2013-03-24 04:24:00,26.4,23.3,30.04,North,0,8.7,8.7,88,0.00,,,0.00,WUHU215HW,2013-03-24 09:24:00,
2013-03-24 04:25:00,26.4,23.3,30.04,North,0,8.7,8.7,88,0.00,,,0.00,WUHU215HW,2013-03-24 09:25:00,
2013-03-24 04:28:00,26.4,23.3,30.04,NNW,338,3.1,8.7,88,0.00,,,0.00,WUHU215HW,2013-03-24 09:28:00,
2013-03-24 04:30:00,26.4,23.3,30.04,NNW,341,2.5,8.7,88,0.00,,,0.00,WUHU215HW,2013-03-24 09:30:00,
2013-03-24 04:31:00,26.4,23.3,30.04,NNW,348,1.9,8.7,88,0.00,,,0.00,WUHU215HW,2013-03-24 09:31:00,
2013-03-24 04:32:00,26.4,23.3,30.04,NW,315,3.5,8.7,88,0.00,,,0.00,WUHU215HW,2013-03-24 09:32:00,
2013-03-24 04:35:00,26.4,23.3,30.04,NW,318,2.7,8.7,88,0.00,,,0.00,WUHU215HW,2013-03-24 09:35:00,
2013-03-24 04:37:00,26.4,23.3,30.04,NW,325,2.0,3.5,88,0.00,,,0.00,WUHU215HW,2013-03-24 09:37:00,
2013-03-24 04:40:00,26.2,23.3,30.04,NNW,338,1.3,3.5,88,0.00,,,0.00,WUHU215HW,2013-03-24 09:40:00,
2013-03-24 04:45:00,26.2,22.8,30.04,North,0,2.0,2.0,87,0.00,,,0.00,WUHU215HW,2013-03-24 09:45:00,
2013-03-24 04:50:00,26.0,22.9,30.04,NNE,13,10.0,12.5,87,0.00,,,0.00,WUHU215HW,2013-03-24 09:50:00,
2013-03-24 04:51:00,26.0,22.6,30.04,North,359,8.0,12.5,87,0.00,,,0.00,WUHU215HW,2013-03-24 09:51:00,
2013-03-24 04:55:00,25.8,22.5,30.04,NE,45,3.1,12.5,87,0.00,,,0.00,WUHU215HW,2013-03-24 09:55:00,
2013-03-24 04:57:00,25.8,22.5,30.04,West,270,2.4,12.5,87,0.00,,,0.00,WUHU215HW,2013-03-24 09:57:00,
2013-03-24 05:00:00,25.8,22.5,30.04,North,0,12.9,12.9,87,0.00,,,0.00,WUHU215HW,2013-03-24 10:00:00,
2013-03-24 05:05:00,25.7,22.5,30.04,NE,45,6.2,12.9,87,0.00,,,0.00,WUHU215HW,2013-03-24 10:05:00,
2013-03-24 05:10:00,25.5,22.1,30.04,NE,45,5.1,12.9,87,0.00,,,0.00,WUHU215HW,2013-03-24 10:10:00,
2013-03-24 05:11:00,25.5,22.1,30.04,NE,42,3.6,12.9,87,0.00,,,0.00,WUHU215HW,2013-03-24 10:11:00,
2013-03-24 05:13:00,25.5,22.1,30.04,NE,35,2.1,6.2,87,0.00,,,0.00,WUHU215HW,2013-03-24 10:13:00,
2013-03-24 05:14:00,25.5,22.1,30.04,North,0,2.2,6.2,87,0.00,,,0.00,WUHU215HW,2013-03-24 10:14:00,
2013-03-24 05:16:00,25.5,22.1,30.04,North,0,2.2,6.2,87,0.00,,,0.00,WUHU215HW,2013-03-24 10:16:00,
2013-03-24 05:17:00,25.5,22.1,30.04,North,0,2.2,5.1,87,0.00,,,0.00,WUHU215HW,2013-03-24 10:17:00,
2013-03-24 05:19:00,25.5,22.1,30.04,North,0,5.3,5.3,87,0.00,,,0.00,WUHU215HW,2013-03-24 10:19:00,
2013-03-24 05:21:00,25.5,22.1,30.04,North,0,5.3,5.3,87,0.00,,,0.00,WUHU215HW,2013-03-24 10:21:00,
2013-03-24 05:22:00,25.5,22.1,30.04,North,352,3.8,5.3,87,0.00,,,0.00,WUHU215HW,2013-03-24 10:22:00,
2013-03-24 05:25:00,25.5,22.1,30.04,WNW,293,1.7,5.3,87,0.00,,,0.00,WUHU215HW,2013-03-24 10:25:00,
2013-03-24 05:27:00,25.5,22.1,30.04,NNW,338,1.1,5.3,87,0.00,,,0.00,WUHU215HW,2013-03-24 10:27:00,
2013-03-24 05:28:00,25.5,22.1,30.04,NNW,338,1.1,5.3,87,0.00,,,0.00,WUHU215HW,2013-03-24 10:28:00,
2013-03-24 05:32:00,25.3,22.2,30.04,NNE,23,1.5,1.7,88,0.00,,,0.00,WUHU215HW,2013-03-24 10:32:00,
2013-03-24 05:33:00,25.3,22.2,30.04,NNE,23,1.5,1.7,88,0.00,,,0.00,WUHU215HW,2013-03-24 10:33:00,
2013-03-24 05:36:00,25.3,21.9,30.04,North,0,6.9,6.9,87,0.00,,,0.00,WUHU215HW,2013-03-24 10:36:00,
2013-03-24 05:37:00,25.3,21.9,30.04,NNW,346,5.3,6.9,87,0.00,,,0.00,WUHU215HW,2013-03-24 10:37:00,
2013-03-24 05:38:00,25.3,21.9,30.04,NW,323,4.1,6.9,87,0.00,,,0.00,WUHU215HW,2013-03-24 10:38:00,
2013-03-24 05:43:00,25.1,21.8,30.04,NNE,23,1.5,6.9,87,0.00,,,0.00,WUHU215HW,2013-03-24 10:43:00,
2013-03-24 05:44:00,25.1,21.8,30.04,NNE,23,1.5,6.9,87,0.00,,,0.00,WUHU215HW,2013-03-24 10:44:00,
2013-03-24 05:49:00,24.9,21.6,30.04,NNE,23,1.3,2.4,87,0.00,,,0.00,WUHU215HW,2013-03-24 10:49:00,
2013-03-24 05:52:00,24.9,21.6,30.04,North,8,1.0,1.5,87,0.00,,,0.00,WUHU215HW,2013-03-24 10:52:00,
2013-03-24 05:54:00,24.9,21.6,30.04,NW,315,2.2,2.2,87,0.00,,,0.00,WUHU215HW,2013-03-24 10:54:00,
2013-03-24 05:57:00,24.9,21.6,30.04,North,0,7.1,7.1,87,0.00,,,0.00,WUHU215HW,2013-03-24 10:57:00,
2013-03-24 05:59:00,24.9,21.6,30.04,NNW,346,6.4,7.1,87,0.00,,,0.00,WUHU215HW,2013-03-24 10:59:00,
2013-03-24 06:01:00,24.9,21.6,30.04,North,4,4.6,7.1,87,0.00,,,0.00,WUHU215HW,2013-03-24 11:01:00,
2013-03-24 06:02:00,24.9,21.6,30.04,NNE,23,4.4,7.1,87,0.00,,,0.00,WUHU215HW,2013-03-24 11:02:00,
2013-03-24 06:07:00,24.9,21.6,30.04,NNE,23,4.6,7.1,87,0.00,,,0.00,WUHU215HW,2013-03-24 11:07:00,
2013-03-24 06:09:00,24.9,21.6,30.04,NW,315,5.5,6.2,87,0.00,,,0.00,WUHU215HW,2013-03-24 11:09:00,
2013-03-24 06:14:00,24.6,21.2,30.04,NNE,23,1.8,5.5,87,0.00,,,0.00,WUHU215HW,2013-03-24 11:14:00,
2013-03-24 06:16:00,24.6,21.2,30.04,NNE,23,0.6,5.5,87,0.00,,,0.00,WUHU215HW,2013-03-24 11:16:00,
2013-03-24 06:18:00,24.6,21.2,30.04,NNW,338,0.0,5.5,87,0.00,,,0.00,WUHU215HW,2013-03-24 11:18:00,
2013-03-24 06:21:00,24.6,21.2,30.04,NNW,330,3.1,4.2,87,0.00,,,0.00,WUHU215HW,2013-03-24 11:21:00,
2013-03-24 06:24:00,24.6,21.2,30.04,NW,315,2.2,4.2,87,0.00,,,0.00,WUHU215HW,2013-03-24 11:24:00,
2013-03-24 06:26:00,24.6,21.2,30.04,North,0,7.3,7.3,87,0.00,,,0.00,WUHU215HW,2013-03-24 11:26:00,
2013-03-24 06:29:00,24.6,21.2,30.04,North,0,7.3,7.3,87,0.00,,,0.00,WUHU215HW,2013-03-24 11:29:00,
2013-03-24 06:32:00,24.6,21.2,30.04,West,270,0.0,7.3,87,0.00,,,0.00,WUHU215HW,2013-03-24 11:32:00,
2013-03-24 06:34:00,24.6,21.2,30.04,West,270,0.0,7.3,87,0.00,,,0.00,WUHU215HW,2013-03-24 11:34:00,
2013-03-24 06:36:00,24.6,21.2,30.04,NNW,338,10.0,10.0,87,0.00,,,0.00,WUHU215HW,2013-03-24 11:36:00,
2013-03-24 06:37:00,24.6,21.2,30.04,NNW,338,10.0,10.0,87,0.00,,,0.00,WUHU215HW,2013-03-24 11:37:00,
2013-03-24 06:41:00,24.6,21.2,30.04,NNE,23,2.4,10.0,87,0.00,,,0.00,WUHU215HW,2013-03-24 11:41:00,
2013-03-24 06:42:00,24.6,21.2,30.04,NNE,23,2.4,10.0,87,0.00,,,0.00,WUHU215HW,2013-03-24 11:42:00,
2013-03-24 06:43:00,24.6,21.2,30.04,North,0,3.5,10.0,87,0.00,,,0.00,WUHU215HW,2013-03-24 11:43:00,
2013-03-24 06:46:00,24.6,21.2,30.04,North,11,2.3,10.0,87,0.00,,,0.00,WUHU215HW,2013-03-24 11:46:00,
2013-03-24 06:47:00,24.6,21.2,30.04,WSW,248,3.5,10.0,87,0.00,,,0.00,WUHU215HW,2013-03-24 11:47:00,
2013-03-24 06:50:00,24.8,21.2,30.04,North,0,5.3,5.3,87,0.00,,,0.00,WUHU215HW,2013-03-24 11:50:00,
2013-03-24 06:52:00,24.9,21.2,30.04,NNW,347,2.3,5.3,86,0.00,,,0.00,WUHU215HW,2013-03-24 11:52:00,
2013-03-24 06:55:00,24.9,21.2,30.04,NNW,338,1.5,5.3,86,0.00,,,0.00,WUHU215HW,2013-03-24 11:55:00,
2013-03-24 06:59:00,24.9,21.3,30.04,North,0,0.0,5.3,86,0.00,,,0.00,WUHU215HW,2013-03-24 11:59:00,
2013-03-24 07:00:00,24.9,21.3,30.04,North,0,9.6,9.6,86,0.00,,,0.00,WUHU215HW,2013-03-24 12:00:00,
2013-03-24 07:02:00,24.9,21.3,30.04,North,0,9.6,9.6,86,0.00,,,0.00,WUHU215HW,2013-03-24 12:02:00,
2013-03-24 07:05:00,25.1,21.5,30.04,North,0,2.4,9.6,86,0.00,,,0.00,WUHU215HW,2013-03-24 12:05:00,
2013-03-24 07:08:00,25.3,21.7,30.04,West,270,2.6,9.6,86,0.00,,,0.00,WUHU215HW,2013-03-24 12:08:00,
2013-03-24 07:10:00,25.3,21.7,30.04,West,270,2.6,9.6,86,0.00,,,0.00,WUHU215HW,2013-03-24 12:10:00,
2013-03-24 07:11:00,25.3,21.7,30.04,West,270,2.6,9.6,86,0.00,,,0.00,WUHU215HW,2013-03-24 12:11:00,
2013-03-24 07:13:00,25.3,21.7,30.04,North,0,6.0,6.0,86,0.00,,,0.00,WUHU215HW,2013-03-24 12:13:00,
2013-03-24 07:17:00,25.3,21.7,30.04,North,0,6.0,6.0,86,0.00,,,0.00,WUHU215HW,2013-03-24 12:17:00,
2013-03-24 07:18:00,25.3,21.7,30.04,North,0,6.0,6.0,85,0.00,,,0.00,WUHU215HW,2013-03-24 12:18:00,
2013-03-24 07:21:00,25.3,21.7,30.04,North,351,2.4,6.0,85,0.00,,,0.00,WUHU215HW,2013-03-24 12:21:00,
2013-03-24 07:24:00,25.3,21.4,30.04,NW,315,0.8,6.0,85,0.00,,,0.00,WUHU215HW,2013-03-24 12:24:00,
2013-03-24 07:25:00,25.3,21.4,30.04,NW,315,0.8,6.0,85,0.00,,,0.00,WUHU215HW,2013-03-24 12:25:00,
2013-03-24 07:30:00,25.3,21.4,30.04,NNW,338,5.8,5.8,85,0.00,,,0.00,WUHU215HW,2013-03-24 12:30:00,
2013-03-24 07:32:00,25.3,21.4,30.04,NNW,338,5.8,5.8,85,0.00,,,0.00,WUHU215HW,2013-03-24 12:32:00,
2013-03-24 07:37:00,25.3,21.1,30.04,NW,315,2.4,5.8,84,0.00,,,0.00,WUHU215HW,2013-03-24 12:37:00,
2013-03-24 07:40:00,25.3,21.1,30.04,NW,315,2.4,5.8,84,0.00,,,0.00,WUHU215HW,2013-03-24 12:40:00,
2013-03-24 07:41:00,25.5,21.3,30.04,NW,315,2.4,5.8,84,0.00,,,0.00,WUHU215HW,2013-03-24 12:41:00,
2013-03-24 07:43:00,25.3,21.1,30.04,NW,311,1.9,4.6,84,0.00,,,0.00,WUHU215HW,2013-03-24 12:43:00,
2013-03-24 07:46:00,25.3,21.1,30.04,NNW,338,4.2,4.2,84,0.00,,,0.00,WUHU215HW,2013-03-24 12:46:00,
2013-03-24 07:49:00,25.3,21.1,30.04,NW,321,6.7,8.9,84,0.00,,,0.00,WUHU215HW,2013-03-24 12:49:00,
2013-03-24 07:51:00,25.3,21.1,30.04,North,0,2.9,8.9,84,0.00,,,0.00,WUHU215HW,2013-03-24 12:51:00,
2013-03-24 07:54:00,25.3,20.8,30.04,North,0,1.5,8.9,83,0.00,,,0.00,WUHU215HW,2013-03-24 12:54:00,
2013-03-24 07:55:00,25.3,20.8,30.04,North,0,1.5,8.9,83,0.00,,,0.00,WUHU215HW,2013-03-24 12:55:00,
2013-03-24 08:00:00,25.5,21.0,30.04,West,270,6.2,6.2,83,0.00,,,0.00,WUHU215HW,2013-03-24 13:00:00,
2013-03-24 08:01:00,25.5,21.0,30.04,West,270,6.2,6.2,83,0.00,,,0.00,WUHU215HW,2013-03-24 13:01:00,
2013-03-24 08:05:00,25.5,21.0,30.04,NNE,23,4.4,6.2,83,0.00,,,0.00,WUHU215HW,2013-03-24 13:05:00,
2013-03-24 08:07:00,25.5,21.0,30.04,North,350,3.6,6.2,83,0.00,,,0.00,WUHU215HW,2013-03-24 13:07:00,
2013-03-24 08:09:00,25.5,21.0,30.04,East,90,0.0,6.2,83,0.00,,,0.00,WUHU215HW,2013-03-24 13:09:00,
2013-03-24 08:13:00,25.3,20.8,30.04,ESE,113,5.1,6.2,83,0.00,,,0.00,WUHU215HW,2013-03-24 13:13:00,
2013-03-24 08:15:00,25.3,20.8,30.04,WSW,248,9.8,9.8,83,0.00,,,0.00,WUHU215HW,2013-03-24 13:15:00,
2013-03-24 08:18:00,25.3,20.8,30.04,WSW,248,9.8,9.8,83,0.00,,,0.00,WUHU215HW,2013-03-24 13:18:00,
2013-03-24 08:20:00,25.5,21.0,30.04,NNE,23,6.2,9.8,83,0.00,,,0.00,WUHU215HW,2013-03-24 13:20:00,
2013-03-24 08:22:00,25.5,21.0,30.04,NNE,23,6.2,9.8,83,0.00,,,0.00,WUHU215HW,2013-03-24 13:22:00,
2013-03-24 08:24:00,25.5,21.0,30.04,NW,315,8.2,9.8,83,0.00,,,0.00,WUHU215HW,2013-03-24 13:24:00,
2013-03-24 08:27:00,25.5,20.7,30.04,NNW,341,5.8,9.8,82,0.00,,,0.00,WUHU215HW,2013-03-24 13:27:00,
2013-03-24 08:28:00,25.5,20.7,30.04,North,0,5.3,9.8,82,0.00,,,0.00,WUHU215HW,2013-03-24 13:28:00,
2013-03-24 08:32:00,25.5,20.7,30.04,North,0,5.3,8.2,82,0.00,,,0.00,WUHU215HW,2013-03-24 13:32:00,
2013-03-24 08:34:00,25.5,20.7,30.04,North,0,5.3,8.2,82,0.00,,,0.00,WUHU215HW,2013-03-24 13:34:00,
2013-03-24 08:35:00,25.5,20.7,30.04,North,0,5.3,8.2,82,0.00,,,0.00,WUHU215HW,2013-03-24 13:35:00,
2013-03-24 08:40:00,25.5,20.7,30.04,North,0,5.3,5.3,82,0.00,,,0.00,WUHU215HW,2013-03-24 13:40:00,
2013-03-24 08:41:00,25.5,20.7,30.04,North,0,5.3,5.3,82,0.00,,,0.00,WUHU215HW,2013-03-24 13:41:00,
2013-03-24 08:45:00,25.5,20.7,30.04,North,0,5.3,5.3,82,0.00,,,0.00,WUHU215HW,2013-03-24 13:45:00,
2013-03-24 08:50:00,25.5,20.7,30.04,North,0,5.3,5.3,82,0.00,,,0.00,WUHU215HW,2013-03-24 13:50:00,
2013-03-24 08:54:00,25.5,20.7,30.04,North,0,5.3,5.3,82,0.00,,,0.00,WUHU215HW,2013-03-24 13:54:00,
2013-03-24 08:56:00,25.5,20.7,30.04,North,0,5.3,5.3,82,0.00,,,0.00,WUHU215HW,2013-03-24 13:56:00,
2013-03-24 08:57:00,25.5,20.7,30.04,North,0,5.3,5.3,82,0.00,,,0.00,WUHU215HW,2013-03-24 13:57:00,
2013-03-24 09:02:00,25.7,20.9,30.04,North,0,5.3,5.3,82,0.00,,,0.00,WUHU215HW,2013-03-24 14:02:00,
2013-03-24 09:03:00,25.6,20.9,30.04,North,0,5.3,5.3,82,0.00,,,0.00,WUHU215HW,2013-03-24 14:03:00,
2013-03-24 09:04:00,25.6,20.8,30.04,North,0,5.3,5.3,82,0.00,,,0.00,WUHU215HW,2013-03-24 14:04:00,
2013-03-24 09:06:00,25.5,20.7,30.04,North,0,5.3,5.3,82,0.00,,,0.00,WUHU215HW,2013-03-24 14:06:00,
2013-03-24 09:08:00,25.4,20.4,30.04,North,0,5.3,5.3,81,0.00,,,0.00,WUHU215HW,2013-03-24 14:08:00,
2013-03-24 09:09:00,25.3,20.3,30.04,North,354,4.8,5.3,81,0.00,,,0.00,WUHU215HW,2013-03-24 14:09:00,
2013-03-24 09:14:00,25.1,20.0,30.04,NNW,338,4.0,5.3,81,0.00,,,0.00,WUHU215HW,2013-03-24 14:14:00,
2013-03-24 09:18:00,24.7,19.7,30.04,North,0,0.8,5.3,81,0.00,,,0.00,WUHU215HW,2013-03-24 14:18:00,
2013-03-24 09:19:00,24.8,19.8,30.04,North,0,0.8,4.0,81,0.00,,,0.00,WUHU215HW,2013-03-24 14:19:00,
2013-03-24 09:20:00,24.7,19.7,30.04,North,0,0.8,4.0,81,0.00,,,0.00,WUHU215HW,2013-03-24 14:20:00,
2013-03-24 09:25:00,24.5,19.5,30.04,NW,308,0.7,1.5,81,0.00,,,0.00,WUHU215HW,2013-03-24 14:25:00,
2013-03-24 09:27:00,24.6,19.6,30.04,SW,225,3.3,3.3,81,0.00,,,0.00,WUHU215HW,2013-03-24 14:27:00,
2013-03-24 09:29:00,24.3,19.1,30.04,NE,45,12.3,12.3,80,0.00,,,0.00,WUHU215HW,2013-03-24 14:29:00,
2013-03-24 09:34:00,24.0,18.5,30.04,NNW,338,3.8,12.3,79,0.00,,,0.00,WUHU215HW,2013-03-24 14:34:00,
2013-03-24 09:35:00,24.0,18.7,30.04,NNW,338,3.8,12.3,80,0.00,,,0.00,WUHU215HW,2013-03-24 14:35:00,
2013-03-24 09:36:00,23.9,18.7,30.04,NNW,338,3.8,12.3,80,0.00,,,0.00,WUHU215HW,2013-03-24 14:36:00,
2013-03-24 09:40:00,23.9,18.4,30.04,NNW,338,3.8,3.8,79,0.00,,,0.00,WUHU215HW,2013-03-24 14:40:00,
2013-03-24 09:41:00,23.9,18.3,30.04,NE,45,6.4,6.4,79,0.00,,,0.00,WUHU215HW,2013-03-24 14:41:00,
2013-03-24 09:43:00,23.6,18.0,30.04,NE,34,4.7,6.4,79,0.00,,,0.00,WUHU215HW,2013-03-24 14:43:00,
2013-03-24 09:45:00,23.5,18.0,30.04,NNW,331,2.8,6.4,79,0.00,,,0.00,WUHU215HW,2013-03-24 14:45:00,
2013-03-24 09:47:00,23.5,17.9,30.04,NW,323,2.7,6.4,79,0.00,,,0.00,WUHU215HW,2013-03-24 14:47:00,
2013-03-24 09:51:00,23.2,17.7,30.04,NW,315,2.6,6.4,79,0.00,,,0.00,WUHU215HW,2013-03-24 14:51:00,
2013-03-24 09:52:00,23.2,17.6,30.04,NW,315,2.6,6.4,79,0.00,,,0.00,WUHU215HW,2013-03-24 14:52:00,
2013-03-24 09:57:00,23.0,17.4,30.04,West,270,8.0,8.0,79,0.00,,,0.00,WUHU215HW,2013-03-24 14:57:00,
2013-03-24 10:00:00,22.8,17.3,30.04,WNW,282,5.5,8.0,79,0.00,,,0.00,WUHU215HW,2013-03-24 15:00:00,
2013-03-24 10:03:00,22.7,16.9,30.04,WNW,293,4.4,8.0,78,0.00,,,0.00,WUHU215HW,2013-03-24 15:03:00,
2013-03-24 10:05:00,23.0,17.1,30.04,WNW,293,4.4,8.0,78,0.00,,,0.00,WUHU215HW,2013-03-24 15:05:00,
2013-03-24 10:08:00,22.8,17.0,30.04,WNW,293,4.4,4.4,78,0.00,,,0.00,WUHU215HW,2013-03-24 15:08:00,
2013-03-24 10:09:00,22.8,17.0,30.04,WNW,293,4.4,4.4,78,0.00,,,0.00,WUHU215HW,2013-03-24 15:09:00,
2013-03-24 10:14:00,22.6,16.2,30.04,WNW,293,4.4,4.4,76,0.00,,,0.00,WUHU215HW,2013-03-24 15:14:00,
2013-03-24 10:17:00,22.5,16.1,30.04,WNW,293,4.4,4.4,76,0.00,,,0.00,WUHU215HW,2013-03-24 15:17:00,
2013-03-24 10:19:00,22.3,15.9,30.04,WNW,293,4.4,4.4,76,0.00,,,0.00,WUHU215HW,2013-03-24 15:19:00,
2013-03-24 10:21:00,22.3,15.9,30.04,WNW,293,4.4,4.4,76,0.00,,,0.00,WUHU215HW,2013-03-24 15:21:00,
2013-03-24 10:22:00,22.3,15.9,30.04,WNW,293,4.4,4.4,76,0.00,,,0.00,WUHU215HW,2013-03-24 15:22:00,
2013-03-24 10:27:00,22.0,15.7,30.04,WNW,293,4.4,4.4,76,0.00,,,0.00,WUHU215HW,2013-03-24 15:27:00,
2013-03-24 10:28:00,22.0,15.0,30.04,WNW,293,4.4,4.4,74,0.00,,,0.00,WUHU215HW,2013-03-24 15:28:00,
2013-03-24 10:32:00,21.8,14.8,30.04,WNW,293,4.4,4.4,74,0.00,,,0.00,WUHU215HW,2013-03-24 15:32:00,
2013-03-24 10:34:00,21.8,14.8,30.04,WNW,293,4.4,4.4,74,0.00,,,0.00,WUHU215HW,2013-03-24 15:34:00,
2013-03-24 10:37:00,21.6,14.3,30.04,NNE,23,10.7,10.7,73,0.00,,,0.00,WUHU215HW,2013-03-24 15:37:00,
2013-03-24 10:38:00,21.6,14.3,30.04,NNE,23,10.7,10.7,73,0.00,,,0.00,WUHU215HW,2013-03-24 15:38:00,
2013-03-24 10:40:00,21.5,14.2,30.04,NNE,23,10.7,10.7,73,0.00,,,0.00,WUHU215HW,2013-03-24 15:40:00,
2013-03-24 10:41:00,21.5,14.2,30.04,NNE,23,10.7,10.7,73,0.00,,,0.00,WUHU215HW,2013-03-24 15:41:00,
2013-03-24 10:45:00,21.3,14.0,30.04,NNE,23,10.7,10.7,73,0.00,,,0.00,WUHU215HW,2013-03-24 15:45:00,
2013-03-24 10:47:00,21.2,14.0,30.04,NNE,23,10.7,10.7,73,0.00,,,0.00,WUHU215HW,2013-03-24 15:47:00,
2013-03-24 10:48:00,21.2,13.9,30.04,NNE,23,10.7,10.7,73,0.00,,,0.00,WUHU215HW,2013-03-24 15:48:00,
2013-03-24 10:51:00,21.1,13.8,30.04,NNE,23,10.7,10.7,73,0.00,,,0.00,WUHU215HW,2013-03-24 15:51:00,
2013-03-24 10:52:00,21.3,14.0,30.04,NNE,23,10.7,10.7,73,0.00,,,0.00,WUHU215HW,2013-03-24 15:52:00,
2013-03-24 10:56:00,21.1,13.9,30.04,NNE,23,10.7,10.7,73,0.00,,,0.00,WUHU215HW,2013-03-24 15:56:00,
2013-03-24 10:57:00,21.1,13.8,30.04,NNE,23,10.7,10.7,73,0.00,,,0.00,WUHU215HW,2013-03-24 15:57:00,
2013-03-24 11:01:00,20.9,13.7,30.04,NNE,23,10.7,10.7,73,0.00,,,0.00,WUHU215HW,2013-03-24 16:01:00,
2013-03-24 11:03:00,20.9,13.7,30.04,NNE,23,10.7,10.7,73,0.00,,,0.00,WUHU215HW,2013-03-24 16:03:00,
2013-03-24 11:06:00,20.8,13.5,30.04,NNE,23,10.7,10.7,73,0.00,,,0.00,WUHU215HW,2013-03-24 16:06:00,
2013-03-24 11:07:00,20.8,13.5,30.04,NNE,23,10.7,10.7,73,0.00,,,0.00,WUHU215HW,2013-03-24 16:07:00,
2013-03-24 11:08:00,20.7,13.5,30.04,NNE,23,10.7,10.7,73,0.00,,,0.00,WUHU215HW,2013-03-24 16:08:00,
2013-03-24 11:12:00,20.6,13.4,30.04,NNE,23,10.7,10.7,73,0.00,,,0.00,WUHU215HW,2013-03-24 16:12:00,
2013-03-24 11:13:00,20.6,13.3,30.04,NNE,23,10.7,10.7,73,0.00,,,0.00,WUHU215HW,2013-03-24 16:13:00,
2013-03-24 11:14:00,20.6,13.3,30.04,NNE,23,10.7,10.7,73,0.00,,,0.00,WUHU215HW,2013-03-24 16:14:00,
2013-03-24 11:18:00,20.4,13.2,30.04,NNE,23,10.7,10.7,73,0.00,,,0.00,WUHU215HW,2013-03-24 16:18:00,
2013-03-24 11:21:00,20.4,13.1,30.04,NNE,23,10.7,10.7,73,0.00,,,0.00,WUHU215HW,2013-03-24 16:21:00,
2013-03-24 11:22:00,20.3,13.1,30.04,NNE,23,10.7,10.7,73,0.00,,,0.00,WUHU215HW,2013-03-24 16:22:00,
2013-03-24 11:23:00,20.3,13.1,30.04,NNE,23,10.7,10.7,73,0.00,,,0.00,WUHU215HW,2013-03-24 16:23:00,
2013-03-24 11:27:00,20.2,13.0,30.04,NNE,23,10.7,10.7,73,0.00,,,0.00,WUHU215HW,2013-03-24 16:27:00,
2013-03-24 11:28:00,20.2,13.0,30.04,NNE,23,10.7,10.7,73,0.00,,,0.00,WUHU215HW,2013-03-24 16:28:00,
2013-03-24 11:32:00,20.1,12.9,30.04,NNE,23,10.7,10.7,73,0.00,,,0.00,WUHU215HW,2013-03-24 16:32:00,
2013-03-24 11:33:00,20.1,12.8,30.04,NNE,23,10.7,10.7,73,0.00,,,0.00,WUHU215HW,2013-03-24 16:33:00,
2013-03-24 11:35:00,20.0,12.8,30.04,NNE,23,10.7,10.7,73,0.00,,,0.00,WUHU215HW,2013-03-24 16:35:00,
2013-03-24 11:39:00,20.0,12.7,30.04,NNE,23,10.7,10.7,73,0.00,,,0.00,WUHU215HW,2013-03-24 16:39:00,
2013-03-24 11:42:00,19.9,12.7,30.04,North,0,6.2,10.7,73,0.00,,,0.00,WUHU215HW,2013-03-24 16:42:00,
2013-03-24 11:47:00,22.8,15.5,30.04,North,0,6.2,10.7,73,0.00,,,0.00,WUHU215HW,2013-03-24 16:47:00,
2013-03-24 11:50:00,22.8,12.8,30.04,North,0,6.2,6.2,65,0.00,,,0.00,WUHU215HW,2013-03-24 16:50:00,
2013-03-24 11:52:00,23.6,13.6,30.04,North,0,6.2,6.2,65,0.00,,,0.00,WUHU215HW,2013-03-24 16:52:00,
2013-03-24 11:54:00,24.0,13.6,30.04,North,0,6.2,6.2,64,0.00,,,0.00,WUHU215HW,2013-03-24 16:54:00,
2013-03-24 11:56:00,24.0,13.6,30.04,North,0,6.2,6.2,64,0.00,,,0.00,WUHU215HW,2013-03-24 16:56:00,
2013-03-24 11:59:00,23.9,13.6,30.04,North,0,6.2,6.2,64,0.00,,,0.00,WUHU215HW,2013-03-24 16:59:00,
2013-03-24 12:04:00,23.9,12.4,30.04,NNE,13,5.5,6.2,61,0.00,,,0.00,WUHU215HW,2013-03-24 17:04:00,
2013-03-24 12:06:00,24.9,13.4,30.04,NE,45,5.1,6.2,61,0.00,,,0.00,WUHU215HW,2013-03-24 17:06:00,
2013-03-24 12:09:00,24.9,13.4,30.04,NE,45,5.1,6.2,61,0.00,,,0.00,WUHU215HW,2013-03-24 17:09:00,
2013-03-24 12:10:00,24.9,13.4,30.04,NE,45,5.1,6.2,61,0.00,,,0.00,WUHU215HW,2013-03-24 17:10:00,
2013-03-24 12:12:00,24.9,13.4,30.04,NE,45,5.1,6.2,61,0.00,,,0.00,WUHU215HW,2013-03-24 17:12:00,
2013-03-24 12:15:00,24.9,13.4,30.04,NE,45,5.1,5.1,61,0.00,,,0.00,WUHU215HW,2013-03-24 17:15:00,
2013-03-24 12:17:00,24.9,13.3,30.04,NE,45,5.1,5.1,61,0.00,,,0.00,WUHU215HW,2013-03-24 17:17:00,
2013-03-24 12:20:00,24.8,13.3,30.04,NE,45,5.1,5.1,61,0.00,,,0.00,WUHU215HW,2013-03-24 17:20:00,
2013-03-24 12:21:00,24.8,13.3,30.04,NE,45,5.1,5.1,61,0.00,,,0.00,WUHU215HW,2013-03-24 17:21:00,
2013-03-24 12:25:00,24.8,13.3,30.04,NE,45,5.1,5.1,61,0.00,,,0.00,WUHU215HW,2013-03-24 17:25:00,
2013-03-24 12:27:00,24.8,13.3,30.04,NE,45,5.1,5.1,61,0.00,,,0.00,WUHU215HW,2013-03-24 17:27:00,
2013-03-24 12:30:00,24.8,13.3,30.04,NE,45,5.1,5.1,61,0.00,,,0.00,WUHU215HW,2013-03-24 17:30:00,
2013-03-24 12:32:00,24.8,13.3,30.04,NE,45,5.1,5.1,61,0.00,,,0.00,WUHU215HW,2013-03-24 17:32:00,
2013-03-24 12:34:00,24.8,13.3,30.04,NE,45,5.1,5.1,61,0.00,,,0.00,WUHU215HW,2013-03-24 17:34:00,
2013-03-24 12:37:00,24.8,13.3,30.04,NE,45,5.1,5.1,61,0.00,,,0.00,WUHU215HW,2013-03-24 17:37:00,
2013-03-24 12:40:00,24.8,13.3,30.04,NE,45,5.1,5.1,61,0.00,,,0.00,WUHU215HW,2013-03-24 17:40:00,
2013-03-24 12:45:00,24.8,13.3,30.04,NE,45,5.1,5.1,61,0.00,,,0.00,WUHU215HW,2013-03-24 17:45:00,
2013-03-24 12:50:00,24.9,13.3,30.04,NE,45,5.1,5.1,61,0.00,,,0.00,WUHU215HW,2013-03-24 17:50:00,
2013-03-24 12:52:00,24.9,13.3,30.04,NE,45,5.1,5.1,61,0.00,,,0.00,WUHU215HW,2013-03-24 17:52:00,
2013-03-24 12:55:00,24.9,13.4,30.04,NE,45,5.1,5.1,61,0.00,,,0.00,WUHU215HW,2013-03-24 17:55:00,
2013-03-24 12:57:00,24.9,13.4,30.04,NE,45,5.1,5.1,61,0.00,,,0.00,WUHU215HW,2013-03-24 17:57:00,
2013-03-24 13:00:00,24.9,13.4,30.04,NE,45,5.1,5.1,61,0.00,,,0.00,WUHU215HW,2013-03-24 18:00:00,
2013-03-24 13:02:00,25.0,13.4,30.04,NE,45,5.1,5.1,61,0.00,,,0.00,WUHU215HW,2013-03-24 18:02:00,
2013-03-24 13:03:00,25.0,13.4,30.04,NE,45,5.1,5.1,61,0.00,,,0.00,WUHU215HW,2013-03-24 18:03:00,
2013-03-24 13:05:00,25.0,13.5,30.04,NE,45,5.1,5.1,61,0.00,,,0.00,WUHU215HW,2013-03-24 18:05:00,
2013-03-24 13:07:00,25.0,13.5,30.04,NE,45,5.1,5.1,61,0.00,,,0.00,WUHU215HW,2013-03-24 18:07:00,
2013-03-24 13:12:00,25.1,13.6,30.04,NE,45,5.1,5.1,61,0.00,,,0.00,WUHU215HW,2013-03-24 18:12:00,
2013-03-24 13:15:00,25.1,13.6,30.04,NE,45,5.1,5.1,61,0.00,,,0.00,WUHU215HW,2013-03-24 18:15:00,
2013-03-24 13:17:00,25.2,13.6,30.04,NE,45,5.1,5.1,61,0.00,,,0.00,WUHU215HW,2013-03-24 18:17:00,
2013-03-24 13:18:00,25.2,13.6,30.04,NE,45,5.1,5.1,61,0.00,,,0.00,WUHU215HW,2013-03-24 18:18:00,
2013-03-24 13:21:00,25.2,13.7,30.04,NE,45,5.1,5.1,61,0.00,,,0.00,WUHU215HW,2013-03-24 18:21:00,
2013-03-24 13:22:00,25.2,10.0,30.04,NE,45,5.1,5.1,52,0.00,,,0.00,WUHU215HW,2013-03-24 18:22:00,
2013-03-24 13:23:00,25.3,10.0,30.04,NE,45,5.1,5.1,52,0.00,,,0.00,WUHU215HW,2013-03-24 18:23:00,
2013-03-24 13:25:00,25.3,10.1,30.04,NE,45,5.1,5.1,52,0.00,,,0.00,WUHU215HW,2013-03-24 18:25:00,
2013-03-24 13:29:00,29.5,14.8,30.04,NNE,23,5.1,5.1,54,0.00,,,0.00,WUHU215HW,2013-03-24 18:29:00,
2013-03-24 13:30:00,29.7,15.1,30.04,North,9,3.5,5.1,54,0.00,,,0.00,WUHU215HW,2013-03-24 18:30:00,
2013-03-24 13:32:00,29.7,15.1,30.04,WNW,293,2.4,5.1,54,0.00,,,0.00,WUHU215HW,2013-03-24 18:32:00,
2013-03-24 13:34:00,30.0,15.3,30.04,WNW,293,2.4,5.1,54,0.00,,,0.00,WUHU215HW,2013-03-24 18:34:00,
2013-03-24 13:37:00,30.0,15.4,30.04,WNW,293,2.4,5.1,54,0.00,,,0.00,WUHU215HW,2013-03-24 18:37:00,
2013-03-24 13:38:00,30.4,15.7,30.04,WNW,293,2.4,5.1,54,0.00,,,0.00,WUHU215HW,2013-03-24 18:38:00,
2013-03-24 13:41:00,30.6,15.1,30.04,WNW,293,2.4,2.4,52,0.00,,,0.00,WUHU215HW,2013-03-24 18:41:00,
2013-03-24 13:42:00,30.7,15.1,30.04,WNW,293,2.4,2.4,52,0.00,,,0.00,WUHU215HW,2013-03-24 18:42:00,
2013-03-24 13:43:00,30.7,15.1,30.04,NW,315,3.8,3.8,52,0.00,,,0.00,WUHU215HW,2013-03-24 18:43:00,
2013-03-24 13:47:00,30.3,14.7,30.04,NW,315,3.8,3.8,52,0.00,,,0.00,WUHU215HW,2013-03-24 18:47:00,
2013-03-24 13:48:00,30.3,14.8,30.04,North,0,6.2,6.2,52,0.00,,,0.00,WUHU215HW,2013-03-24 18:48:00,
2013-03-24 13:53:00,30.5,15.3,30.04,NNE,23,8.2,8.2,53,0.00,,,0.00,WUHU215HW,2013-03-24 18:53:00,
2013-03-24 13:54:00,30.5,15.4,30.04,NNE,23,8.2,8.2,53,0.00,,,0.00,WUHU215HW,2013-03-24 18:54:00,
2013-03-24 13:56:00,30.7,15.6,30.04,NNE,23,8.2,8.2,53,0.00,,,0.00,WUHU215HW,2013-03-24 18:56:00,
2013-03-24 13:59:00,30.8,15.7,30.04,NNE,23,8.2,8.2,53,0.00,,,0.00,WUHU215HW,2013-03-24 18:59:00,
2013-03-24 14:01:00,30.9,15.7,30.04,NNE,23,8.2,8.2,53,0.00,,,0.00,WUHU215HW,2013-03-24 19:01:00,
2013-03-24 14:04:00,31.0,15.8,30.04,NNE,23,8.2,8.2,53,0.00,,,0.00,WUHU215HW,2013-03-24 19:04:00,
2013-03-24 14:05:00,31.0,15.9,30.04,NNE,23,8.2,8.2,53,0.00,,,0.00,WUHU215HW,2013-03-24 19:05:00,
2013-03-24 14:07:00,31.1,15.9,30.04,NNE,23,5.4,8.2,53,0.02,,,0.02,WUHU215HW,2013-03-24 19:07:00,
2013-03-24 14:10:00,31.5,15.8,30.04,NNW,338,3.8,8.2,52,0.02,,,0.02,WUHU215HW,2013-03-24 19:10:00,
2013-03-24 14:16:00,31.2,15.5,30.04,NNW,338,2.6,8.2,52,0.02,,,0.02,WUHU215HW,2013-03-24 19:16:00,
2013-03-24 14:17:00,31.2,15.6,30.04,NE,45,6.2,6.2,52,0.02,,,0.02,WUHU215HW,2013-03-24 19:17:00,
2013-03-24 14:18:00,31.3,15.6,30.04,NE,45,6.2,6.2,52,0.02,,,0.02,WUHU215HW,2013-03-24 19:18:00,
2013-03-24 14:20:00,31.1,16.0,30.04,NE,45,6.2,6.2,53,0.02,,,0.02,WUHU215HW,2013-03-24 19:20:00,
2013-03-24 14:22:00,31.2,16.0,30.04,NE,45,0.0,6.2,53,0.02,,,0.02,WUHU215HW,2013-03-24 19:22:00,
2013-03-24 14:25:00,31.3,16.1,30.04,NE,45,0.0,6.2,53,0.02,,,0.02,WUHU215HW,2013-03-24 19:25:00,
2013-03-24 14:26:00,31.4,16.6,30.04,SW,225,6.2,6.2,54,0.02,,,0.02,WUHU215HW,2013-03-24 19:26:00,
2013-03-24 14:29:00,31.7,16.9,30.04,SW,225,6.2,6.2,54,0.02,,,0.02,WUHU215HW,2013-03-24 19:29:00,
2013-03-24 14:30:00,31.9,17.1,30.04,SW,214,5.2,6.2,54,0.02,,,0.02,WUHU215HW,2013-03-24 19:30:00,
2013-03-24 14:32:00,31.9,17.2,30.04,SSW,199,4.5,6.2,54,0.02,,,0.02,WUHU215HW,2013-03-24 19:32:00,
2013-03-24 14:36:00,31.9,16.7,30.04,NNE,23,3.3,6.2,53,0.02,,,0.02,WUHU215HW,2013-03-24 19:36:00,
2013-03-24 14:37:00,32.0,16.8,30.04,North,10,2.1,6.2,53,0.02,,,0.02,WUHU215HW,2013-03-24 19:37:00,
2013-03-24 14:40:00,32.1,16.9,30.04,NNE,23,6.2,6.2,53,0.02,,,0.02,WUHU215HW,2013-03-24 19:40:00,
2013-03-24 14:42:00,32.2,16.9,30.04,NNE,23,6.2,6.2,53,0.02,,,0.02,WUHU215HW,2013-03-24 19:42:00,
2013-03-24 14:45:00,32.1,16.4,30.04,North,0,4.2,6.2,52,0.02,,,0.02,WUHU215HW,2013-03-24 19:45:00,
2013-03-24 14:46:00,32.2,16.5,30.04,North,0,4.2,6.2,52,0.02,,,0.02,WUHU215HW,2013-03-24 19:46:00,
2013-03-24 14:48:00,32.2,16.5,30.04,North,0,4.2,6.2,52,0.02,,,0.02,WUHU215HW,2013-03-24 19:48:00,
2013-03-24 14:50:00,32.3,16.6,30.04,North,0,4.2,6.2,52,0.02,,,0.02,WUHU215HW,2013-03-24 19:50:00,
2013-03-24 14:51:00,32.4,16.7,30.04,North,0,4.2,6.2,52,0.02,,,0.02,WUHU215HW,2013-03-24 19:51:00,
2013-03-24 14:54:00,32.5,17.2,30.04,NE,45,4.6,4.6,53,0.02,,,0.02,WUHU215HW,2013-03-24 19:54:00,
2013-03-24 14:56:00,31.7,16.0,30.04,West,270,2.9,4.6,52,0.02,,,0.02,WUHU215HW,2013-03-24 19:56:00,
2013-03-24 15:00:00,31.5,15.8,30.04,West,270,2.9,4.6,52,0.02,,,0.02,WUHU215HW,2013-03-24 20:00:00,
2013-03-24 15:02:00,31.6,15.9,30.04,West,270,2.9,4.6,52,0.02,,,0.02,WUHU215HW,2013-03-24 20:02:00,
2013-03-24 15:03:00,31.6,16.0,30.04,West,270,2.9,4.6,52,0.02,,,0.02,WUHU215HW,2013-03-24 20:03:00,
2013-03-24 15:07:00,31.8,16.1,30.04,West,270,2.9,2.9,52,0.00,,,0.02,WUHU215HW,2013-03-24 20:07:00,
2013-03-24 15:08:00,31.8,16.2,30.04,West,270,2.9,2.9,52,0.00,,,0.02,WUHU215HW,2013-03-24 20:08:00,
2013-03-24 15:12:00,32.0,16.3,30.04,West,270,2.9,2.9,52,0.00,,,0.02,WUHU215HW,2013-03-24 20:12:00,
2013-03-24 15:13:00,32.1,16.4,30.04,West,270,2.9,2.9,52,0.00,,,0.02,WUHU215HW,2013-03-24 20:13:00,
2013-03-24 15:14:00,32.1,16.4,30.04,West,270,2.9,2.9,52,0.00,,,0.02,WUHU215HW,2013-03-24 20:14:00,
2013-03-24 15:15:00,32.2,16.5,30.04,West,270,2.9,2.9,52,0.00,,,0.02,WUHU215HW,2013-03-24 20:15:00,
2013-03-24 15:20:00,31.7,16.9,30.04,WSW,248,6.4,6.4,54,0.00,,,0.02,WUHU215HW,2013-03-24 20:20:00,
2013-03-24 15:21:00,31.8,17.0,30.04,WSW,248,6.4,6.4,54,0.00,,,0.02,WUHU215HW,2013-03-24 20:21:00,
2013-03-24 15:26:00,31.3,17.0,30.04,WSW,248,6.4,6.4,55,0.02,,,0.04,WUHU215HW,2013-03-24 20:26:00,
2013-03-24 15:27:00,31.4,17.0,30.04,WSW,248,6.4,6.4,55,0.02,,,0.04,WUHU215HW,2013-03-24 20:27:00,
2013-03-24 15:28:00,31.4,17.1,30.04,WSW,248,6.4,6.4,55,0.02,,,0.04,WUHU215HW,2013-03-24 20:28:00,
2013-03-24 15:33:00,31.0,17.5,30.04,NNE,23,7.3,7.3,57,0.02,,,0.04,WUHU215HW,2013-03-24 20:33:00,
2013-03-24 15:34:00,31.0,17.6,30.04,NNE,15,7.1,7.3,57,0.02,,,0.04,WUHU215HW,2013-03-24 20:34:00,
2013-03-24 15:36:00,31.1,17.7,30.04,NNW,348,4.8,7.3,57,0.02,,,0.04,WUHU215HW,2013-03-24 20:36:00,
2013-03-24 15:37:00,31.2,17.7,30.04,NW,321,3.1,7.3,57,0.02,,,0.04,WUHU215HW,2013-03-24 20:37:00,
2013-03-24 15:38:00,31.2,17.7,30.04,West,270,2.9,7.3,57,0.02,,,0.04,WUHU215HW,2013-03-24 20:38:00,
2013-03-24 15:42:00,31.4,17.9,30.04,NW,315,7.8,7.8,57,0.02,,,0.04,WUHU215HW,2013-03-24 20:42:00,
2013-03-24 15:44:00,31.5,18.4,30.04,NNW,330,7.2,7.8,58,0.02,,,0.04,WUHU215HW,2013-03-24 20:44:00,
2013-03-24 15:45:00,31.6,18.1,30.04,NNW,332,4.8,7.8,57,0.02,,,0.04,WUHU215HW,2013-03-24 20:45:00,
2013-03-24 15:47:00,31.1,17.6,30.04,WSW,245,0.9,7.8,57,0.02,,,0.04,WUHU215HW,2013-03-24 20:47:00,
2013-03-24 15:49:00,31.2,17.7,30.04,South,180,4.6,7.8,57,0.02,,,0.04,WUHU215HW,2013-03-24 20:49:00,
2013-03-24 15:52:00,31.0,17.5,30.04,South,180,4.6,7.8,57,0.02,,,0.04,WUHU215HW,2013-03-24 20:52:00,
2013-03-24 15:54:00,31.1,17.7,30.04,NNE,23,4.6,7.1,57,0.02,,,0.04,WUHU215HW,2013-03-24 20:54:00,
2013-03-24 15:55:00,31.2,17.7,30.04,NNE,23,4.6,4.6,57,0.02,,,0.04,WUHU215HW,2013-03-24 20:55:00,
2013-03-24 15:58:00,31.3,17.9,30.04,ENE,68,4.2,4.6,57,0.02,,,0.04,WUHU215HW,2013-03-24 20:58:00,
2013-03-24 16:00:00,31.2,18.2,30.04,NE,45,0.0,4.6,58,0.02,,,0.04,WUHU215HW,2013-03-24 21:00:00,
2013-03-24 16:02:00,31.3,18.2,30.04,NE,45,0.0,4.6,58,0.02,,,0.04,WUHU215HW,2013-03-24 21:02:00,
2013-03-24 16:05:00,31.5,18.4,30.04,SE,135,2.0,6.7,58,0.02,,,0.04,WUHU215HW,2013-03-24 21:05:00,
2013-03-24 16:07:00,31.5,18.5,30.04,West,270,3.3,6.7,58,0.02,,,0.04,WUHU215HW,2013-03-24 21:07:00,
2013-03-24 16:08:00,31.6,18.5,30.04,WNW,287,2.3,6.7,58,0.02,,,0.04,WUHU215HW,2013-03-24 21:08:00,
2013-03-24 16:10:00,31.5,18.4,30.04,North,0,2.0,6.7,58,0.02,,,0.04,WUHU215HW,2013-03-24 21:10:00,
2013-03-24 16:11:00,31.4,18.4,30.04,North,0,2.0,6.7,58,0.02,,,0.04,WUHU215HW,2013-03-24 21:11:00,
2013-03-24 16:12:00,31.4,18.3,30.04,North,0,2.0,6.7,58,0.02,,,0.04,WUHU215HW,2013-03-24 21:12:00,
2013-03-24 16:14:00,31.1,18.0,30.04,North,0,2.0,3.3,58,0.02,,,0.04,WUHU215HW,2013-03-24 21:14:00,
2013-03-24 16:16:00,31.0,18.3,30.04,WNW,293,1.1,3.3,59,0.02,,,0.04,WUHU215HW,2013-03-24 21:16:00,
2013-03-24 16:19:00,30.8,17.8,30.04,NNE,23,3.5,3.5,58,0.02,,,0.04,WUHU215HW,2013-03-24 21:19:00,
2013-03-24 16:20:00,30.7,17.7,30.04,NNE,23,3.5,3.5,58,0.02,,,0.04,WUHU215HW,2013-03-24 21:20:00,
2013-03-24 16:21:00,30.5,17.9,30.04,NE,45,0.0,3.5,59,0.02,,,0.04,WUHU215HW,2013-03-24 21:21:00,
2013-03-24 16:25:00,30.3,17.7,30.04,NW,315,4.9,4.9,59,0.00,,,0.04,WUHU215HW,2013-03-24 21:25:00,
2013-03-24 16:27:00,30.2,17.7,30.04,North,0,8.9,8.9,59,0.00,,,0.04,WUHU215HW,2013-03-24 21:27:00,
2013-03-24 16:29:00,30.1,17.5,30.04,North,0,8.9,8.9,59,0.00,,,0.04,WUHU215HW,2013-03-24 21:29:00,
2013-03-24 16:30:00,30.0,17.5,30.04,NNW,338,1.3,8.9,59,0.00,,,0.04,WUHU215HW,2013-03-24 21:30:00,
2013-03-24 16:31:00,30.0,17.4,30.04,NNW,338,1.3,8.9,59,0.00,,,0.04,WUHU215HW,2013-03-24 21:31:00,
2013-03-24 16:35:00,29.8,17.3,30.04,North,352,1.1,8.9,59,0.00,,,0.04,WUHU215HW,2013-03-24 21:35:00,
2013-03-24 16:37:00,29.7,17.2,30.04,North,0,1.1,8.9,59,0.00,,,0.04,WUHU215HW,2013-03-24 21:37:00,
2013-03-24 16:38:00,29.7,17.1,30.04,NE,45,9.1,9.1,59,0.00,,,0.04,WUHU215HW,2013-03-24 21:38:00,
2013-03-24 16:40:00,29.6,17.0,30.04,NNE,27,6.4,9.1,59,0.00,,,0.04,WUHU215HW,2013-03-24 21:40:00,
2013-03-24 16:43:00,29.2,16.6,30.04,NW,312,4.5,9.1,59,0.00,,,0.04,WUHU215HW,2013-03-24 21:43:00,
2013-03-24 16:45:00,28.9,16.4,30.04,WNW,293,1.7,9.1,59,0.00,,,0.04,WUHU215HW,2013-03-24 21:45:00,
2013-03-24 16:47:00,28.8,16.3,30.04,WNW,293,1.7,9.1,59,0.00,,,0.04,WUHU215HW,2013-03-24 21:47:00,
2013-03-24 16:50:00,28.9,16.8,30.04,SE,135,3.1,6.0,60,0.00,,,0.04,WUHU215HW,2013-03-24 21:50:00,
2013-03-24 16:52:00,28.8,16.3,30.04,NNW,338,1.1,6.0,59,0.00,,,0.04,WUHU215HW,2013-03-24 21:52:00,
2013-03-24 16:53:00,28.8,16.3,30.04,SE,135,1.1,3.1,59,0.00,,,0.04,WUHU215HW,2013-03-24 21:53:00,
2013-03-24 16:54:00,28.9,16.4,30.04,SE,135,1.1,3.1,59,0.00,,,0.04,WUHU215HW,2013-03-24 21:54:00,
2013-03-24 16:58:00,28.6,16.1,30.04,NE,45,6.2,6.2,59,0.00,,,0.04,WUHU215HW,2013-03-24 21:58:00,
2013-03-24 16:59:00,28.5,16.1,30.04,NE,45,6.2,6.2,59,0.00,,,0.04,WUHU215HW,2013-03-24 21:59:00,
2013-03-24 17:02:00,28.7,16.2,30.04,NE,37,6.0,8.9,59,0.00,,,0.04,WUHU215HW,2013-03-24 22:02:00,
2013-03-24 17:04:00,28.6,16.1,30.04,South,180,3.3,8.9,59,0.00,,,0.04,WUHU215HW,2013-03-24 22:04:00,
2013-03-24 17:07:00,28.5,16.0,30.04,North,0,3.1,8.9,59,0.00,,,0.04,WUHU215HW,2013-03-24 22:07:00,
2013-03-24 17:08:00,28.5,16.0,30.04,North,0,3.1,8.9,59,0.00,,,0.04,WUHU215HW,2013-03-24 22:08:00,
2013-03-24 17:12:00,28.4,15.9,30.04,SE,135,0.0,8.9,59,0.00,,,0.04,WUHU215HW,2013-03-24 22:12:00,
2013-03-24 17:15:00,28.3,15.9,30.04,SE,135,0.0,3.3,59,0.00,,,0.04,WUHU215HW,2013-03-24 22:15:00,
2013-03-24 17:17:00,28.3,15.8,30.04,SE,135,0.0,3.1,59,0.00,,,0.04,WUHU215HW,2013-03-24 22:17:00,
2013-03-24 17:18:00,28.3,15.8,30.04,WNW,293,2.4,2.4,59,0.00,,,0.04,WUHU215HW,2013-03-24 22:18:00,
2013-03-24 17:23:00,28.3,15.8,30.04,West,270,1.1,2.4,59,0.00,,,0.04,WUHU215HW,2013-03-24 22:23:00,
2013-03-24 17:24:00,28.3,15.8,30.04,West,270,1.1,2.4,59,0.00,,,0.04,WUHU215HW,2013-03-24 22:24:00,
2013-03-24 17:25:00,28.3,15.8,30.04,West,270,1.1,2.4,59,0.00,,,0.04,WUHU215HW,2013-03-24 22:25:00,
2013-03-24 17:27:00,28.2,15.8,30.04,East,90,0.8,2.4,59,0.00,,,0.04,WUHU215HW,2013-03-24 22:27:00,
2013-03-24 17:30:00,28.6,16.1,30.04,NE,45,2.0,2.4,59,0.00,,,0.04,WUHU215HW,2013-03-24 22:30:00,
2013-03-24 17:31:00,28.6,16.1,30.04,NE,45,2.0,2.0,59,0.00,,,0.04,WUHU215HW,2013-03-24 22:31:00,
2013-03-24 17:33:00,28.6,16.1,30.04,NE,45,2.0,2.0,59,0.00,,,0.04,WUHU215HW,2013-03-24 22:33:00,
2013-03-24 17:36:00,28.2,15.3,30.04,NE,45,2.0,2.0,58,0.00,,,0.04,WUHU215HW,2013-03-24 22:36:00,
2013-03-24 17:38:00,28.2,15.3,30.04,NNE,23,2.6,2.6,58,0.00,,,0.04,WUHU215HW,2013-03-24 22:38:00,
2013-03-24 17:40:00,28.2,15.3,30.04,NNE,23,2.6,2.6,58,0.00,,,0.04,WUHU215HW,2013-03-24 22:40:00,
2013-03-24 17:41:00,28.2,15.3,30.04,NNE,23,2.6,2.6,58,0.00,,,0.04,WUHU215HW,2013-03-24 22:41:00,
2013-03-24 17:46:00,28.2,15.4,30.04,NNW,338,7.3,7.3,58,0.00,,,0.04,WUHU215HW,2013-03-24 22:46:00,
2013-03-24 17:47:00,28.2,15.4,30.04,NNW,338,7.3,7.3,58,0.00,,,0.04,WUHU215HW,2013-03-24 22:47:00,
2013-03-24 17:50:00,28.0,14.7,30.04,NNW,338,7.3,7.3,57,0.00,,,0.04,WUHU215HW,2013-03-24 22:50:00,
2013-03-24 17:52:00,27.8,15.0,30.04,NW,321,2.9,7.3,58,0.00,,,0.04,WUHU215HW,2013-03-24 22:52:00,
2013-03-24 17:54:00,27.8,15.0,30.04,North,0,5.8,7.3,58,0.00,,,0.04,WUHU215HW,2013-03-24 22:54:00,
2013-03-24 17:56:00,27.9,15.0,30.04,North,0,5.8,7.3,58,0.00,,,0.04,WUHU215HW,2013-03-24 22:56:00,
2013-03-24 17:57:00,27.9,15.0,30.04,North,0,5.8,7.3,58,0.00,,,0.04,WUHU215HW,2013-03-24 22:57:00,
2013-03-24 18:01:00,27.6,14.7,30.04,NNE,23,2.4,5.8,58,0.00,,,0.04,WUHU215HW,2013-03-24 23:01:00,
2013-03-24 18:02:00,27.6,14.7,30.04,NW,315,9.6,9.6,58,0.00,,,0.04,WUHU215HW,2013-03-24 23:02:00,
2013-03-24 18:07:00,27.6,14.7,30.04,NNW,338,4.2,9.6,58,0.00,,,0.04,WUHU215HW,2013-03-24 23:07:00,
2013-03-24 18:11:00,27.5,15.1,30.04,WNW,293,6.7,9.6,59,0.00,,,0.04,WUHU215HW,2013-03-24 23:11:00,
2013-03-24 18:12:00,27.5,15.1,30.04,WNW,293,6.7,9.6,59,0.00,,,0.04,WUHU215HW,2013-03-24 23:12:00,
2013-03-24 18:15:00,27.2,14.8,30.04,SSW,203,2.2,8.0,59,0.00,,,0.04,WUHU215HW,2013-03-24 23:15:00,
2013-03-24 18:17:00,27.1,14.7,30.04,SSW,203,2.2,8.0,59,0.00,,,0.04,WUHU215HW,2013-03-24 23:17:00,
2013-03-24 18:20:00,27.2,15.2,30.04,SSW,203,2.2,6.7,60,0.00,,,0.04,WUHU215HW,2013-03-24 23:20:00,
2013-03-24 18:21:00,27.2,15.2,30.04,North,0,2.9,6.7,60,0.00,,,0.04,WUHU215HW,2013-03-24 23:21:00,
2013-03-24 18:25:00,27.4,15.3,30.04,North,0,2.9,2.9,60,0.00,,,0.04,WUHU215HW,2013-03-24 23:25:00,
2013-03-24 18:26:00,27.1,14.7,30.04,North,0,2.9,2.9,59,0.00,,,0.04,WUHU215HW,2013-03-24 23:26:00,
2013-03-24 18:30:00,27.1,15.1,30.04,SW,225,6.2,6.2,60,0.00,,,0.04,WUHU215HW,2013-03-24 23:30:00,
2013-03-24 18:31:00,27.1,15.1,30.04,SW,225,6.2,6.2,60,0.00,,,0.04,WUHU215HW,2013-03-24 23:31:00,
2013-03-24 18:33:00,27.2,15.2,30.04,SW,225,6.2,6.2,60,0.00,,,0.04,WUHU215HW,2013-03-24 23:33:00,
2013-03-24 18:35:00,27.1,15.1,30.04,SW,225,6.2,6.2,60,0.00,,,0.04,WUHU215HW,2013-03-24 23:35:00,
2013-03-24 18:36:00,27.1,15.1,30.04,SW,225,6.2,6.2,60,0.00,,,0.04,WUHU215HW,2013-03-24 23:36:00,
2013-03-24 18:39:00,27.3,15.3,30.04,SW,225,6.2,6.2,60,0.00,,,0.04,WUHU215HW,2013-03-24 23:39:00,
2013-03-24 18:40:00,27.3,15.3,30.04,SW,225,6.2,6.2,60,0.00,,,0.04,WUHU215HW,2013-03-24 23:40:00,
2013-03-24 18:42:00,27.4,15.4,30.04,SW,225,6.2,6.2,60,0.00,,,0.04,WUHU215HW,2013-03-24 23:42:00,
2013-03-24 18:43:00,27.3,15.6,30.04,SW,225,6.2,6.2,61,0.00,,,0.04,WUHU215HW,2013-03-24 23:43:00,
2013-03-24 18:44:00,27.3,15.7,30.04,SW,225,6.2,6.2,61,0.00,,,0.04,WUHU215HW,2013-03-24 23:44:00,
2013-03-24 18:46:00,27.3,15.7,30.04,SW,225,6.2,6.2,61,0.00,,,0.04,WUHU215HW,2013-03-24 23:46:00,
2013-03-24 18:49:00,27.3,15.6,30.04,NNE,23,7.1,7.1,61,0.00,,,0.04,WUHU215HW,2013-03-24 23:49:00,
2013-03-24 18:50:00,27.3,15.7,30.04,NNE,23,7.1,7.1,61,0.00,,,0.04,WUHU215HW,2013-03-24 23:50:00,
2013-03-24 18:51:00,27.4,15.7,30.04,NNE,23,7.1,7.1,61,0.00,,,0.04,WUHU215HW,2013-03-24 23:51:00,
2013-03-24 18:53:00,27.5,15.8,30.04,NNE,17,6.1,7.1,61,0.00,,,0.04,WUHU215HW,2013-03-24 23:53:00,
2013-03-24 18:55:00,27.6,15.9,30.04,West,270,6.0,7.1,61,0.00,,,0.04,WUHU215HW,2013-03-24 23:55:00,
2013-03-24 18:56:00,27.4,15.8,30.04,West,270,6.0,7.1,61,0.00,,,0.04,WUHU215HW,2013-03-24 23:56:00,
2013-03-24 18:58:00,27.5,15.9,30.04,North,0,5.5,7.1,61,0.00,,,0.04,WUHU215HW,2013-03-24 23:58:00,
2013-03-24 19:00:00,27.6,16.3,30.04,North,351,3.7,7.1,62,0.00,,,0.04,WUHU215HW,2013-03-25 00:00:00,
2013-03-24 19:01:00,27.7,16.4,30.04,NNW,328,2.2,7.1,62,0.00,,,0.04,WUHU215HW,2013-03-25 00:01:00,
2013-03-24 19:02:00,27.7,16.4,30.04,North,0,4.0,7.1,62,0.00,,,0.04,WUHU215HW,2013-03-25 00:02:00,
2013-03-24 19:04:00,27.8,16.5,30.04,North,0,4.0,6.0,62,0.00,,,0.04,WUHU215HW,2013-03-25 00:04:00,
2013-03-24 19:07:00,27.6,16.3,30.04,NNE,14,3.6,6.0,62,0.00,,,0.04,WUHU215HW,2013-03-25 00:07:00,
2013-03-24 19:09:00,27.6,16.3,30.04,NNE,23,3.5,5.5,62,0.00,,,0.04,WUHU215HW,2013-03-25 00:09:00,
2013-03-24 19:10:00,27.6,16.3,30.04,NNE,23,3.5,4.0,62,0.00,,,0.04,WUHU215HW,2013-03-25 00:10:00,
2013-03-24 19:12:00,27.6,16.3,30.04,NNE,23,3.5,4.0,62,0.00,,,0.04,WUHU215HW,2013-03-25 00:12:00,
2013-03-24 19:15:00,27.5,16.3,30.04,West,270,0.0,4.0,62,0.00,,,0.04,WUHU215HW,2013-03-25 00:15:00,
2013-03-24 19:17:00,27.3,15.9,30.04,West,270,0.0,3.5,62,0.00,,,0.04,WUHU215HW,2013-03-25 00:17:00,
2013-03-24 19:19:00,27.3,15.9,30.04,West,270,2.0,3.5,62,0.00,,,0.04,WUHU215HW,2013-03-25 00:19:00,
2013-03-24 19:20:00,27.3,15.9,30.04,West,270,2.0,3.5,62,0.00,,,0.04,WUHU215HW,2013-03-25 00:20:00,
2013-03-24 19:23:00,27.3,15.9,30.04,West,270,2.0,2.0,62,0.00,,,0.04,WUHU215HW,2013-03-25 00:23:00,
2013-03-24 19:25:00,27.3,15.9,30.04,West,270,2.0,2.0,63,0.00,,,0.04,WUHU215HW,2013-03-25 00:25:00,
2013-03-24 19:26:00,27.1,15.9,30.04,West,270,2.0,2.0,63,0.00,,,0.04,WUHU215HW,2013-03-25 00:26:00,
2013-03-24 19:31:00,26.9,15.9,30.04,West,270,2.0,2.0,63,0.00,,,0.04,WUHU215HW,2013-03-25 00:31:00,
2013-03-24 19:32:00,26.9,15.9,30.04,West,270,2.0,2.0,63,0.00,,,0.04,WUHU215HW,2013-03-25 00:32:00,
2013-03-24 19:34:00,26.9,15.9,30.04,West,270,2.0,2.0,63,0.00,,,0.04,WUHU215HW,2013-03-25 00:34:00,
2013-03-24 19:36:00,26.9,15.9,30.04,West,270,2.0,2.0,63,0.00,,,0.04,WUHU215HW,2013-03-25 00:36:00,
2013-03-24 19:38:00,26.9,15.9,30.04,West,270,2.0,2.0,63,0.00,,,0.04,WUHU215HW,2013-03-25 00:38:00,
2013-03-24 19:42:00,26.9,15.9,30.04,West,270,2.0,2.0,63,0.00,,,0.04,WUHU215HW,2013-03-25 00:42:00,
2013-03-24 19:44:00,26.9,15.9,30.04,West,270,2.0,2.0,63,0.00,,,0.04,WUHU215HW,2013-03-25 00:44:00,
2013-03-24 19:47:00,26.2,15.9,30.04,West,270,2.0,2.0,63,0.00,,,0.04,WUHU215HW,2013-03-25 00:47:00,
2013-03-24 19:49:00,26.2,15.9,30.04,West,270,2.0,2.0,63,0.00,,,0.04,WUHU215HW,2013-03-25 00:49:00,
2013-03-24 19:51:00,26.2,15.9,30.04,West,270,2.0,2.0,65,0.00,,,0.04,WUHU215HW,2013-03-25 00:51:00,
2013-03-24 19:54:00,26.0,15.9,30.04,West,270,2.0,2.0,65,0.00,,,0.04,WUHU215HW,2013-03-25 00:54:00,
2013-03-24 19:55:00,26.0,15.9,30.04,West,270,2.0,2.0,65,0.00,,,0.04,WUHU215HW,2013-03-25 00:55:00,
2013-03-24 20:00:00,25.7,15.9,30.04,NNE,23,1.5,2.0,67,0.00,,,0.04,WUHU215HW,2013-03-25 01:00:00,
2013-03-24 20:01:00,25.7,15.9,30.04,NNE,23,1.5,2.0,67,0.00,,,0.04,WUHU215HW,2013-03-25 01:01:00,
2013-03-24 20:02:00,25.7,15.9,30.04,NNE,23,1.5,2.0,67,0.00,,,0.04,WUHU215HW,2013-03-25 01:02:00,
2013-03-24 20:04:00,25.5,15.9,30.04,NNE,23,1.5,2.0,67,0.00,,,0.04,WUHU215HW,2013-03-25 01:04:00,
2013-03-24 20:05:00,25.5,15.9,30.04,NNE,23,1.5,2.0,67,0.00,,,0.04,WUHU215HW,2013-03-25 01:05:00,
2013-03-24 20:08:00,25.5,15.9,30.04,NNE,23,1.5,1.5,67,0.00,,,0.04,WUHU215HW,2013-03-25 01:08:00,
2013-03-24 20:09:00,25.5,15.9,30.04,NNE,23,1.5,1.5,67,0.00,,,0.04,WUHU215HW,2013-03-25 01:09:00,
2013-03-24 20:13:00,25.3,15.9,30.04,NNE,23,1.5,1.5,67,0.00,,,0.04,WUHU215HW,2013-03-25 01:13:00,
2013-03-24 20:15:00,25.3,15.9,30.04,NNE,23,0.0,1.5,67,0.00,,,0.04,WUHU215HW,2013-03-25 01:15:00,
2013-03-24 20:17:00,25.1,15.9,30.04,North,0,0.0,1.5,66,0.00,,,0.04,WUHU215HW,2013-03-25 01:17:00,
2013-03-24 20:18:00,25.1,15.9,30.04,North,0,0.0,1.5,66,0.00,,,0.04,WUHU215HW,2013-03-25 01:18:00,
2013-03-24 20:22:00,25.1,15.9,30.04,North,0,5.3,5.3,66,0.00,,,0.04,WUHU215HW,2013-03-25 01:22:00,
2013-03-24 20:23:00,25.1,15.9,30.04,North,0,5.3,5.3,66,0.00,,,0.04,WUHU215HW,2013-03-25 01:23:00,
2013-03-24 20:28:00,24.9,15.3,30.04,North,0,5.3,5.3,66,0.00,,,0.04,WUHU215HW,2013-03-25 01:28:00,
2013-03-24 20:29:00,24.9,15.3,30.04,North,0,5.3,5.3,66,0.00,,,0.04,WUHU215HW,2013-03-25 01:29:00,
2013-03-24 20:34:00,24.9,15.1,30.04,North,0,2.0,5.3,66,0.00,,,0.04,WUHU215HW,2013-03-25 01:34:00,
2013-03-24 20:35:00,24.9,15.1,30.04,North,0,2.0,5.3,66,0.00,,,0.04,WUHU215HW,2013-03-25 01:35:00,
2013-03-24 20:36:00,24.9,15.1,30.04,North,0,2.0,5.3,66,0.00,,,0.04,WUHU215HW,2013-03-25 01:36:00,
2013-03-24 20:39:00,24.8,15.1,30.04,North,0,2.0,5.3,66,0.00,,,0.04,WUHU215HW,2013-03-25 01:39:00,
2013-03-24 20:42:00,24.8,15.1,30.04,North,0,2.0,2.0,66,0.00,,,0.04,WUHU215HW,2013-03-25 01:42:00,
2013-03-24 20:43:00,24.6,15.1,30.04,North,0,2.0,2.0,67,0.00,,,0.04,WUHU215HW,2013-03-25 01:43:00,
2013-03-24 20:44:00,24.6,15.1,30.04,North,0,2.0,2.0,67,0.00,,,0.04,WUHU215HW,2013-03-25 01:44:00,
2013-03-24 20:48:00,24.6,15.1,30.04,NE,45,2.6,2.6,67,0.00,,,0.04,WUHU215HW,2013-03-25 01:48:00,
2013-03-24 20:51:00,24.6,15.1,30.04,NE,45,2.6,2.6,67,0.00,,,0.04,WUHU215HW,2013-03-25 01:51:00,
2013-03-24 20:52:00,24.6,15.1,30.04,NE,45,2.6,2.6,67,0.00,,,0.04,WUHU215HW,2013-03-25 01:52:00,
2013-03-24 20:54:00,24.6,15.1,30.04,NE,45,2.6,2.6,67,0.00,,,0.04,WUHU215HW,2013-03-25 01:54:00,
2013-03-24 20:57:00,24.6,15.1,30.04,NE,45,2.6,2.6,67,0.00,,,0.04,WUHU215HW,2013-03-25 01:57:00,
2013-03-24 20:58:00,24.6,15.1,30.04,NE,45,2.6,2.6,67,0.00,,,0.04,WUHU215HW,2013-03-25 01:58:00,
2013-03-24 20:59:00,24.6,15.1,30.04,NE,45,2.6,2.6,67,0.00,,,0.04,WUHU215HW,2013-03-25 01:59:00,
2013-03-24 21:02:00,24.6,15.1,30.04,NE,45,2.6,2.6,67,0.00,,,0.04,WUHU215HW,2013-03-25 02:02:00,
2013-03-24 21:04:00,24.6,15.1,30.04,NE,45,2.6,2.6,67,0.00,,,0.04,WUHU215HW,2013-03-25 02:04:00,
2013-03-24 21:05:00,24.6,15.1,30.04,NE,45,2.6,2.6,67,0.00,,,0.04,WUHU215HW,2013-03-25 02:05:00,
2013-03-24 21:08:00,24.6,15.1,30.04,NE,45,2.6,2.6,67,0.00,,,0.04,WUHU215HW,2013-03-25 02:08:00,
2013-03-24 21:09:00,24.4,15.1,30.04,NE,45,2.6,2.6,68,0.00,,,0.04,WUHU215HW,2013-03-25 02:09:00,
2013-03-24 21:11:00,24.4,15.1,30.04,NE,45,2.6,2.6,68,0.00,,,0.04,WUHU215HW,2013-03-25 02:11:00,
2013-03-24 21:13:00,24.4,15.1,30.04,NE,45,2.6,2.6,68,0.00,,,0.04,WUHU215HW,2013-03-25 02:13:00,
2013-03-24 21:14:00,24.4,15.1,30.04,NE,45,2.6,2.6,68,0.00,,,0.04,WUHU215HW,2013-03-25 02:14:00,
2013-03-24 21:16:00,24.4,15.1,30.04,NE,45,2.6,2.6,68,0.00,,,0.04,WUHU215HW,2013-03-25 02:16:00,
2013-03-24 21:17:00,24.4,15.1,30.04,NE,45,2.6,2.6,68,0.00,,,0.04,WUHU215HW,2013-03-25 02:17:00,
2013-03-24 21:21:00,24.4,15.1,30.04,West,270,2.9,2.9,69,0.00,,,0.04,WUHU215HW,2013-03-25 02:21:00,
2013-03-24 21:22:00,24.4,15.1,30.04,West,270,2.9,2.9,69,0.00,,,0.04,WUHU215HW,2013-03-25 02:22:00,
2013-03-24 21:25:00,24.4,15.1,30.04,West,270,2.9,2.9,69,0.00,,,0.04,WUHU215HW,2013-03-25 02:25:00,
2013-03-24 21:26:00,24.4,15.1,30.04,West,270,2.9,2.9,69,0.00,,,0.04,WUHU215HW,2013-03-25 02:26:00,
2013-03-24 21:27:00,24.4,15.1,30.04,West,270,2.9,2.9,69,0.00,,,0.04,WUHU215HW,2013-03-25 02:27:00,
2013-03-24 21:30:00,24.4,15.1,30.04,West,270,2.9,2.9,69,0.00,,,0.04,WUHU215HW,2013-03-25 02:30:00,
2013-03-24 21:33:00,24.4,15.1,30.04,West,270,2.9,2.9,69,0.00,,,0.04,WUHU215HW,2013-03-25 02:33:00,
2013-03-24 21:34:00,24.4,15.1,30.04,West,270,2.9,2.9,69,0.00,,,0.04,WUHU215HW,2013-03-25 02:34:00,
2013-03-24 21:39:00,24.4,15.1,30.04,West,270,2.9,2.9,69,0.00,,,0.04,WUHU215HW,2013-03-25 02:39:00,
2013-03-24 21:40:00,24.4,15.1,30.04,West,270,2.9,2.9,69,0.00,,,0.04,WUHU215HW,2013-03-25 02:40:00,
2013-03-24 21:43:00,24.4,15.1,30.04,West,270,2.9,2.9,69,0.00,,,0.04,WUHU215HW,2013-03-25 02:43:00,
2013-03-24 21:45:00,24.4,15.1,30.04,West,270,2.9,2.9,69,0.00,,,0.04,WUHU215HW,2013-03-25 02:45:00,
2013-03-24 21:48:00,24.4,15.1,30.04,West,270,2.9,2.9,69,0.00,,,0.04,WUHU215HW,2013-03-25 02:48:00,
2013-03-24 21:50:00,24.4,15.1,30.04,West,270,2.9,2.9,69,0.00,,,0.04,WUHU215HW,2013-03-25 02:50:00,
2013-03-24 21:51:00,24.4,15.1,30.04,West,270,2.9,2.9,69,0.00,,,0.04,WUHU215HW,2013-03-25 02:51:00,
2013-03-24 21:52:00,24.4,15.1,30.04,West,270,2.9,2.9,69,0.00,,,0.04,WUHU215HW,2013-03-25 02:52:00,
2013-03-24 21:55:00,24.4,15.1,30.04,West,270,2.9,2.9,69,0.00,,,0.04,WUHU215HW,2013-03-25 02:55:00,
2013-03-24 21:57:00,24.4,15.1,30.04,West,270,2.9,2.9,69,0.00,,,0.04,WUHU215HW,2013-03-25 02:57:00,
2013-03-24 22:00:00,24.6,15.6,30.04,West,270,2.9,2.9,69,0.00,,,0.04,WUHU215HW,2013-03-25 03:00:00,
2013-03-24 22:01:00,24.6,15.6,30.04,West,270,2.9,2.9,69,0.00,,,0.04,WUHU215HW,2013-03-25 03:01:00,
2013-03-24 22:05:00,24.4,15.6,30.04,West,270,2.9,2.9,72,0.00,,,0.04,WUHU215HW,2013-03-25 03:05:00,
2013-03-24 22:06:00,24.4,15.6,30.04,West,270,2.9,2.9,72,0.00,,,0.04,WUHU215HW,2013-03-25 03:06:00,
2013-03-24 22:07:00,24.4,15.6,30.04,West,270,2.9,2.9,72,0.00,,,0.04,WUHU215HW,2013-03-25 03:07:00,
2013-03-24 22:10:00,24.4,16.9,30.04,WNW,293,1.5,2.9,73,0.00,,,0.04,WUHU215HW,2013-03-25 03:10:00,
2013-03-24 22:11:00,24.4,16.9,30.04,WNW,293,1.5,2.9,73,0.00,,,0.04,WUHU215HW,2013-03-25 03:11:00,
2013-03-24 22:12:00,24.4,16.9,30.04,WNW,293,1.5,2.9,73,0.00,,,0.04,WUHU215HW,2013-03-25 03:12:00,
2013-03-24 22:14:00,24.4,16.9,30.04,WNW,293,1.5,2.9,73,0.00,,,0.04,WUHU215HW,2013-03-25 03:14:00,
2013-03-24 22:16:00,24.4,16.9,30.04,WNW,293,1.5,2.9,73,0.00,,,0.04,WUHU215HW,2013-03-25 03:16:00,
2013-03-24 22:17:00,24.4,16.9,30.04,ESE,113,1.1,2.9,73,0.00,,,0.04,WUHU215HW,2013-03-25 03:17:00,
2013-03-24 22:18:00,24.4,16.9,30.04,ESE,113,1.1,1.5,73,0.00,,,0.04,WUHU215HW,2013-03-25 03:18:00,
2013-03-24 22:20:00,24.4,16.9,30.04,ESE,113,1.1,1.5,74,0.00,,,0.04,WUHU215HW,2013-03-25 03:20:00,
2013-03-24 22:22:00,24.4,16.9,30.04,ESE,113,1.1,1.5,74,0.00,,,0.04,WUHU215HW,2013-03-25 03:22:00,
2013-03-24 22:24:00,24.4,16.9,30.04,ESE,113,1.1,1.5,74,0.00,,,0.04,WUHU215HW,2013-03-25 03:24:00,
2013-03-24 22:26:00,24.4,17.2,30.04,West,270,0.0,1.5,74,0.00,,,0.04,WUHU215HW,2013-03-25 03:26:00,
2013-03-24 22:27:00,24.4,17.2,30.04,West,270,0.0,1.1,74,0.00,,,0.04,WUHU215HW,2013-03-25 03:27:00,
2013-03-24 22:28:00,24.6,17.2,30.04,West,270,0.0,1.1,74,0.00,,,0.04,WUHU215HW,2013-03-25 03:28:00,
2013-03-24 22:32:00,24.6,17.2,30.04,West,270,0.0,1.1,74,0.00,,,0.04,WUHU215HW,2013-03-25 03:32:00,
2013-03-24 22:33:00,24.6,17.2,30.04,West,270,0.0,0.0,74,0.00,,,0.04,WUHU215HW,2013-03-25 03:33:00,
2013-03-24 22:36:00,24.6,17.2,30.04,ENE,68,0.0,0.0,75,0.00,,,0.04,WUHU215HW,2013-03-25 03:36:00,
2013-03-24 22:37:00,24.6,17.2,30.04,ENE,68,0.0,0.0,75,0.00,,,0.04,WUHU215HW,2013-03-25 03:37:00,
2013-03-24 22:39:00,24.6,17.2,30.04,ENE,68,0.0,0.0,75,0.00,,,0.04,WUHU215HW,2013-03-25 03:39:00,
2013-03-24 22:41:00,24.6,17.2,30.04,ENE,68,0.0,0.0,75,0.00,,,0.04,WUHU215HW,2013-03-25 03:41:00,
2013-03-24 22:43:00,24.6,17.7,30.04,ENE,68,0.0,0.0,75,0.00,,,0.04,WUHU215HW,2013-03-25 03:43:00,
2013-03-24 22:44:00,24.6,17.7,30.04,ENE,68,0.0,0.0,75,0.00,,,0.04,WUHU215HW,2013-03-25 03:44:00,
2013-03-24 22:47:00,24.6,17.7,30.04,ENE,68,0.0,0.0,74,0.00,,,0.04,WUHU215HW,2013-03-25 03:47:00,
2013-03-24 22:49:00,24.6,17.7,30.04,ENE,68,0.0,0.0,74,0.00,,,0.04,WUHU215HW,2013-03-25 03:49:00,
2013-03-24 22:50:00,24.6,17.7,30.04,ENE,68,0.0,0.0,74,0.00,,,0.04,WUHU215HW,2013-03-25 03:50:00,
2013-03-24 22:52:00,24.6,17.7,30.04,ENE,68,0.0,0.0,74,0.00,,,0.04,WUHU215HW,2013-03-25 03:52:00,
2013-03-24 22:55:00,24.6,17.7,30.04,NW,315,0.0,0.0,75,0.00,,,0.04,WUHU215HW,2013-03-25 03:55:00,
2013-03-24 22:56:00,24.6,17.7,30.04,NW,315,0.0,0.0,75,0.00,,,0.04,WUHU215HW,2013-03-25 03:56:00,
2013-03-24 22:59:00,24.6,17.7,30.04,NW,315,0.0,0.0,75,0.00,,,0.04,WUHU215HW,2013-03-25 03:59:00,
2013-03-24 23:00:00,24.6,17.7,30.04,South,180,0.0,0.0,75,0.00,,,0.04,WUHU215HW,2013-03-25 04:00:00,
2013-03-24 23:02:00,24.6,17.7,30.04,South,180,0.0,0.0,75,0.00,,,0.04,WUHU215HW,2013-03-25 04:02:00,
2013-03-24 23:07:00,24.4,17.6,30.04,NW,315,4.9,4.9,75,0.00,,,0.04,WUHU215HW,2013-03-25 04:07:00,
2013-03-24 23:08:00,24.4,17.6,30.04,NW,315,4.9,4.9,75,0.00,,,0.04,WUHU215HW,2013-03-25 04:08:00,
2013-03-24 23:09:00,24.4,17.6,30.04,NW,315,4.9,4.9,75,0.00,,,0.04,WUHU215HW,2013-03-25 04:09:00,
2013-03-24 23:10:00,24.4,17.6,30.04,NNW,338,9.3,9.3,75,0.00,,,0.04,WUHU215HW,2013-03-25 04:10:00,
2013-03-24 23:12:00,24.4,17.6,30.04,NNW,338,9.3,9.3,75,0.00,,,0.04,WUHU215HW,2013-03-25 04:12:00,
2013-03-24 23:14:00,24.4,17.6,30.04,NNW,338,9.3,9.3,75,0.00,,,0.04,WUHU215HW,2013-03-25 04:14:00,
2013-03-24 23:16:00,24.4,17.6,30.04,North,9,4.9,9.3,75,0.00,,,0.04,WUHU215HW,2013-03-25 04:16:00,
2013-03-24 23:18:00,24.4,17.6,30.04,NE,45,4.2,9.3,75,0.00,,,0.04,WUHU215HW,2013-03-25 04:18:00,
2013-03-24 23:21:00,24.4,17.6,30.04,NE,45,4.2,9.3,75,0.00,,,0.04,WUHU215HW,2013-03-25 04:21:00,
2013-03-24 23:22:00,24.4,17.6,30.04,NE,45,4.2,9.3,75,0.00,,,0.04,WUHU215HW,2013-03-25 04:22:00,
2013-03-24 23:24:00,24.4,17.6,30.04,NE,45,4.2,9.3,75,0.00,,,0.04,WUHU215HW,2013-03-25 04:24:00,
2013-03-24 23:27:00,24.4,17.9,30.04,NNW,338,0.0,4.2,76,0.00,,,0.04,WUHU215HW,2013-03-25 04:27:00,
2013-03-24 23:29:00,24.4,17.9,30.04,North,0,0.0,4.2,76,0.00,,,0.04,WUHU215HW,2013-03-25 04:29:00,
2013-03-24 23:32:00,24.4,17.9,30.04,WNW,293,0.8,4.2,76,0.00,,,0.04,WUHU215HW,2013-03-25 04:32:00,
2013-03-24 23:33:00,24.4,17.9,30.04,WNW,293,0.8,0.8,76,0.00,,,0.04,WUHU215HW,2013-03-25 04:33:00,
2013-03-24 23:37:00,24.4,17.9,30.04,South,180,0.0,0.8,76,0.00,,,0.04,WUHU215HW,2013-03-25 04:37:00,
2013-03-24 23:38:00,24.4,17.9,30.04,NNW,338,5.8,5.8,76,0.00,,,0.04,WUHU215HW,2013-03-25 04:38:00,
2013-03-24 23:41:00,24.4,17.9,30.04,NNW,338,5.8,5.8,76,0.00,,,0.04,WUHU215HW,2013-03-25 04:41:00,
2013-03-24 23:42:00,24.4,17.9,30.04,NNW,338,5.8,5.8,76,0.00,,,0.04,WUHU215HW,2013-03-25 04:42:00,
2013-03-24 23:44:00,24.4,17.9,30.04,NNW,338,5.8,5.8,76,0.00,,,0.04,WUHU215HW,2013-03-25 04:44:00,
2013-03-24 23:47:00,24.6,18.4,30.04,NW,315,0.0,5.8,77,0.00,,,0.04,WUHU215HW,2013-03-25 04:47:00,
2013-03-24 23:51:00,24.6,18.4,30.04,NNE,23,1.1,5.8,77,0.00,,,0.04,WUHU215HW,2013-03-25 04:51:00,
2013-03-24 23:52:00,24.6,18.4,30.04,NNE,23,1.1,5.8,77,0.00,,,0.04,WUHU215HW,2013-03-25 04:52:00,
2013-03-24 23:56:00,24.6,18.4,30.04,NNE,23,1.1,1.1,77,0.00,,,0.04,WUHU215HW,2013-03-25 04:56:00,
2013-03-24 23:59:00,24.6,18.4,30.04,SE,135,0.0,1.1,77,0.00,,,0.00,WUHU215HW,2013-03-25 04:59:00,